Observation data for Amarillo 7 South Southeast on 01/23/2019      Previous  Date  Next       Current Mesonet Observations  Soil Data  Daily Summary Page  Observations in Plain Language
KAM1 230600Z 31012KT M05/M09 A3016 RMK A01 T10481093  RH  071%=      5-min Rain = 0
KAM1 230601Z 31013KT M05/M09 A3016 RMK A01 T10481093  RH  070%=      5-min Rain = 0
KAM1 230602Z 30013KT M05/M09 A3016 RMK A01 T10481094  RH  070%=      5-min Rain = 0
KAM1 230603Z 30013KT M05/M09 A3016 RMK A01 T10471093  RH  070%=      5-min Rain = 0
KAM1 230604Z 31012KT M05/M09 A3016 RMK A01 T10471093  RH  070%=      5-min Rain = 0
KAM1 230605Z 31013KT M05/M09 A3016 RMK A01 T10471093  RH  070%=      5-min Rain = 0
KAM1 230606Z 31012KT M05/M09 A3016 RMK A01 T10471094  RH  070%=      5-min Rain = 0
KAM1 230607Z 31012KT M05/M09 A3016 RMK A01 T10471094  RH  070%=      5-min Rain = 0
KAM1 230608Z 31012KT M05/M09 A3016 RMK A01 T10471094  RH  070%=      5-min Rain = 0
KAM1 230609Z 31012KT M05/M10 A3016 RMK A01 T10481095  RH  070%=      5-min Rain = 0
KAM1 230610Z 31011KT M05/M10 A3016 RMK A01 T10481095  RH  070%=      5-min Rain = 0
KAM1 230611Z 31011KT M05/M10 A3016 RMK A01 T10491095  RH  070%=      5-min Rain = 0
KAM1 230612Z 31012KT M05/M10 A3016 RMK A01 T10491095  RH  070%=      5-min Rain = 0
KAM1 230613Z 31013KT M05/M09 A3016 RMK A01 T10481094  RH  070%=      5-min Rain = 0
KAM1 230614Z 30011KT M05/M09 A3016 RMK A01 T10481094  RH  070%=      5-min Rain = 0
KAM1 230615Z 31012KT M05/M10 A3016 RMK A01 T10481095  RH  070%=      5-min Rain = 0
KAM1 230616Z 31012KT M05/M10 A3016 RMK A01 T10481095  RH  070%=      5-min Rain = 0
KAM1 230617Z 31012KT M05/M10 A3016 RMK A01 T10481095  RH  070%=      5-min Rain = 0
KAM1 230618Z 31011KT M05/M10 A3016 RMK A01 T10481095  RH  070%=      5-min Rain = 0
KAM1 230619Z 31012KT M05/M10 A3016 RMK A01 T10481095  RH  070%=      5-min Rain = 0
KAM1 230620Z 31014KT M05/M10 A3016 RMK A01 T10481095  RH  070%=      5-min Rain = 0
KAM1 230621Z 31012KT M05/M09 A3016 RMK A01 T10471094  RH  069%=      5-min Rain = 0
KAM1 230622Z 31013KT M05/M10 A3016 RMK A01 T10471095  RH  069%=      5-min Rain = 0
KAM1 230623Z 31012KT M05/M09 A3016 RMK A01 T10461094  RH  069%=      5-min Rain = 0
KAM1 230624Z 31013KT M05/M09 A3016 RMK A01 T10461094  RH  069%=      5-min Rain = 0
KAM1 230625Z 31014KT M05/M09 A3016 RMK A01 T10451094  RH  068%=      5-min Rain = 0
KAM1 230626Z 31015KT M05/M10 A3016 RMK A01 T10451095  RH  068%=      5-min Rain = 0
KAM1 230627Z 31014KT M04/M09 A3016 RMK A01 T10441094  RH  068%=      5-min Rain = 0
KAM1 230628Z 31015KT M04/M10 A3016 RMK A01 T10441095  RH  068%=      5-min Rain = 0
KAM1 230629Z 31016KT M04/M10 A3016 RMK A01 T10441095  RH  068%=      5-min Rain = 0
KAM1 230630Z 31014G19KT M04/M10 A3016 RMK A01 T10431095  RH  067%=      5-min Rain = 0
KAM1 230631Z 31013KT M04/M10 A3016 RMK A01 T10431095  RH  067%=      5-min Rain = 0
KAM1 230632Z 32014KT M04/M10 A3016 RMK A01 T10431095  RH  067%=      5-min Rain = 0
KAM1 230633Z 32015KT M04/M10 A3016 RMK A01 T10431095  RH  067%=      5-min Rain = 0
KAM1 230634Z 32015KT M04/M10 A3016 RMK A01 T10431096  RH  067%=      5-min Rain = 0
KAM1 230635Z 32015KT M04/M10 A3016 RMK A01 T10431096  RH  067%=      5-min Rain = 0
KAM1 230636Z 32014KT M04/M10 A3016 RMK A01 T10431096  RH  067%=      5-min Rain = 0
KAM1 230637Z 32015KT M04/M10 A3016 RMK A01 T10421096  RH  066%=      5-min Rain = 0
KAM1 230638Z 32015KT M04/M10 A3016 RMK A01 T10421096  RH  066%=      5-min Rain = 0
KAM1 230639Z 32015KT M04/M10 A3016 RMK A01 T10411096  RH  066%=      5-min Rain = 0
KAM1 230640Z 31015KT M04/M10 A3016 RMK A01 T10411097  RH  065%=      5-min Rain = 0
KAM1 230641Z 32013KT M04/M10 A3016 RMK A01 T10411097  RH  065%=      5-min Rain = 0
KAM1 230642Z 33014KT M04/M10 A3016 RMK A01 T10411097  RH  065%=      5-min Rain = 0
KAM1 230643Z 32014KT M04/M10 A3016 RMK A01 T10421098  RH  065%=      5-min Rain = 0
KAM1 230644Z 32013KT M04/M10 A3016 RMK A01 T10421098  RH  065%=      5-min Rain = 0
KAM1 230645Z 32014KT M04/M10 A3016 RMK A01 T10421098  RH  065%=      5-min Rain = 0
KAM1 230646Z 32013G18KT M04/M10 A3016 RMK A01 T10431098  RH  065%=      5-min Rain = 0
KAM1 230647Z 32013KT M04/M10 A3016 RMK A01 T10421098  RH  065%=      5-min Rain = 0
KAM1 230648Z 32013KT M04/M10 A3016 RMK A01 T10431099  RH  065%=      5-min Rain = 0
KAM1 230649Z 32012KT M04/M10 A3016 RMK A01 T10431099  RH  065%=      5-min Rain = 0
KAM1 230650Z 33012KT M04/M10 A3016 RMK A01 T10441099  RH  065%=      5-min Rain = 0
KAM1 230651Z 32012KT M04/M10 A3016 RMK A01 T10441099  RH  065%=      5-min Rain = 0
KAM1 230652Z 33012KT M04/M10 A3016 RMK A01 T10441100  RH  065%=      5-min Rain = 0
KAM1 230653Z 33013KT M04/M10 A3016 RMK A01 T10441100  RH  065%=      5-min Rain = 0
KAM1 230654Z 33012KT M04/M10 A3016 RMK A01 T10431099  RH  065%=      5-min Rain = 0
KAM1 230655Z 33013KT M04/M10 A3016 RMK A01 T10431099  RH  065%=      5-min Rain = 0
KAM1 230656Z 33011KT M04/M10 A3016 RMK A01 T10421100  RH  064%=      5-min Rain = 0
KAM1 230657Z 33013KT M04/M10 A3016 RMK A01 T10421100  RH  064%=      5-min Rain = 0
KAM1 230658Z 33012KT M04/M10 A3016 RMK A01 T10411100  RH  064%=      5-min Rain = 0
KAM1 230659Z 33014KT M04/M10 A3016 RMK A01 T10411100  RH  063%=      5-min Rain = 0
KAM1 230700Z 33012KT M04/M10 A3016 RMK A01 T10391100  RH  063%=      5-min Rain = 0
KAM1 230701Z 33013KT M04/M10 A3016 RMK A01 T10391100  RH  063%=      5-min Rain = 0
KAM1 230702Z 33012KT M04/M10 A3016 RMK A01 T10401101  RH  062%=      5-min Rain = 0
KAM1 230703Z 33011KT M04/M10 A3016 RMK A01 T10391101  RH  062%=      5-min Rain = 0
KAM1 230704Z 34013KT M04/M10 A3016 RMK A01 T10401101  RH  062%=      5-min Rain = 0
KAM1 230705Z 33013KT M04/M10 A3016 RMK A01 T10391101  RH  062%=      5-min Rain = 0
KAM1 230706Z 33013KT M04/M10 A3016 RMK A01 T10381101  RH  061%=      5-min Rain = 0
KAM1 230707Z 34013KT M04/M10 A3016 RMK A01 T10371101  RH  061%=      5-min Rain = 0
KAM1 230708Z 33012KT M04/M10 A3016 RMK A01 T10361101  RH  061%=      5-min Rain = 0
KAM1 230709Z 34014KT M04/M10 A3015 RMK A01 T10371102  RH  061%=      5-min Rain = 0
KAM1 230710Z 34013KT M04/M10 A3015 RMK A01 T10361102  RH  060%=      5-min Rain = 0
KAM1 230711Z 34012KT M04/M10 A3015 RMK A01 T10371102  RH  060%=      5-min Rain = 0
KAM1 230712Z 34013KT M04/M10 A3015 RMK A01 T10371103  RH  060%=      5-min Rain = 0
KAM1 230713Z 34013KT M04/M10 A3015 RMK A01 T10371102  RH  061%=      5-min Rain = 0
KAM1 230714Z 34014KT M04/M10 A3015 RMK A01 T10371103  RH  060%=      5-min Rain = 0
KAM1 230715Z 34013KT M04/M10 A3015 RMK A01 T10371103  RH  060%=      5-min Rain = 0
KAM1 230716Z 34015KT M04/M10 A3015 RMK A01 T10371103  RH  060%=      5-min Rain = 0
KAM1 230717Z 34013KT M04/M10 A3015 RMK A01 T10361103  RH  060%=      5-min Rain = 0
KAM1 230718Z 34013KT M04/M10 A3015 RMK A01 T10361103  RH  060%=      5-min Rain = 0
KAM1 230719Z 34013KT M04/M10 A3015 RMK A01 T10361104  RH  059%=      5-min Rain = 0
KAM1 230720Z 33011KT M04/M10 A3015 RMK A01 T10361104  RH  059%=      5-min Rain = 0
KAM1 230721Z 33012KT M04/M10 A3015 RMK A01 T10361104  RH  059%=      5-min Rain = 0
KAM1 230722Z 33014KT M04/M10 A3015 RMK A01 T10361104  RH  059%=      5-min Rain = 0
KAM1 230723Z 33013KT M04/M10 A3015 RMK A01 T10361104  RH  059%=      5-min Rain = 0
KAM1 230724Z 33012KT M04/M11 A3015 RMK A01 T10371105  RH  059%=      5-min Rain = 0
KAM1 230725Z 33012G17KT M04/M11 A3015 RMK A01 T10371105  RH  059%=      5-min Rain = 0
KAM1 230726Z 33013KT M04/M11 A3015 RMK A01 T10371105  RH  059%=      5-min Rain = 0
KAM1 230727Z 33014KT M04/M11 A3015 RMK A01 T10371105  RH  060%=      5-min Rain = 0
KAM1 230728Z 33012KT M04/M11 A3015 RMK A01 T10371105  RH  060%=      5-min Rain = 0
KAM1 230729Z 33010G16KT M04/M11 A3015 RMK A01 T10371105  RH  059%=      5-min Rain = 0
KAM1 230730Z 33014KT M04/M11 A3015 RMK A01 T10381105  RH  059%=      5-min Rain = 0
KAM1 230731Z 33014KT M04/M11 A3015 RMK A01 T10381105  RH  060%=      5-min Rain = 0
KAM1 230732Z 33013KT M04/M11 A3015 RMK A01 T10381105  RH  060%=      5-min Rain = 0
KAM1 230733Z 32013KT M04/M11 A3015 RMK A01 T10381105  RH  059%=      5-min Rain = 0
KAM1 230734Z 32011KT M04/M11 A3015 RMK A01 T10381105  RH  059%=      5-min Rain = 0
KAM1 230735Z 32011KT M04/M11 A3015 RMK A01 T10381106  RH  060%=      5-min Rain = 0
KAM1 230736Z 32013KT M04/M11 A3015 RMK A01 T10391106  RH  060%=      5-min Rain = 0
KAM1 230737Z 33014KT M04/M11 A3015 RMK A01 T10391106  RH  060%=      5-min Rain = 0
KAM1 230738Z 32013KT M04/M11 A3015 RMK A01 T10391106  RH  060%=      5-min Rain = 0
KAM1 230739Z 33012KT M04/M11 A3015 RMK A01 T10391105  RH  060%=      5-min Rain = 0
KAM1 230740Z 33013KT M04/M11 A3015 RMK A01 T10391105  RH  060%=      5-min Rain = 0
KAM1 230741Z 33014KT M04/M11 A3015 RMK A01 T10391105  RH  060%=      5-min Rain = 0
KAM1 230742Z 33014KT M04/M11 A3015 RMK A01 T10381105  RH  060%=      5-min Rain = 0
KAM1 230743Z 33012KT M04/M11 A3015 RMK A01 T10391106  RH  060%=      5-min Rain = 0
KAM1 230744Z 33013KT M04/M11 A3015 RMK A01 T10381106  RH  059%=      5-min Rain = 0
KAM1 230745Z 33012KT M04/M11 A3015 RMK A01 T10381106  RH  059%=      5-min Rain = 0
KAM1 230746Z 33012KT M04/M11 A3015 RMK A01 T10381106  RH  059%=      5-min Rain = 0
KAM1 230747Z 33013KT M04/M11 A3015 RMK A01 T10381106  RH  059%=      5-min Rain = 0
KAM1 230748Z 33012KT M04/M11 A3015 RMK A01 T10391106  RH  059%=      5-min Rain = 0
KAM1 230749Z 33013KT M04/M11 A3015 RMK A01 T10381106  RH  059%=      5-min Rain = 0
KAM1 230750Z 33011KT M04/M11 A3015 RMK A01 T10381106  RH  059%=      5-min Rain = 0
KAM1 230751Z 34011G17KT M04/M11 A3015 RMK A01 T10391106  RH  059%=      5-min Rain = 0
KAM1 230752Z 33013KT M04/M11 A3015 RMK A01 T10391107  RH  059%=      5-min Rain = 0
KAM1 230753Z 33011KT M04/M11 A3015 RMK A01 T10391107  RH  059%=      5-min Rain = 0
KAM1 230754Z 34012KT M04/M11 A3015 RMK A01 T10391107  RH  059%=      5-min Rain = 0
KAM1 230755Z 33011KT M04/M11 A3015 RMK A01 T10391106  RH  059%=      5-min Rain = 0
KAM1 230756Z 33014KT M04/M11 A3015 RMK A01 T10391106  RH  059%=      5-min Rain = 0
KAM1 230757Z 33014G19KT M04/M11 A3015 RMK A01 T10391106  RH  059%=      5-min Rain = 0
KAM1 230758Z 33012KT M04/M11 A3015 RMK A01 T10381106  RH  059%=      5-min Rain = 0
KAM1 230759Z 33012KT M04/M11 A3015 RMK A01 T10381106  RH  059%=      5-min Rain = 0
KAM1 230800Z 34012KT M04/M11 A3015 RMK A01 T10381107  RH  059%=      5-min Rain = 0
KAM1 230801Z 33013KT M04/M11 A3015 RMK A01 T10391107  RH  059%=      5-min Rain = 0
KAM1 230802Z 33012KT M04/M11 A3015 RMK A01 T10391107  RH  059%=      5-min Rain = 0
KAM1 230803Z 34013KT M04/M11 A3015 RMK A01 T10381107  RH  059%=      5-min Rain = 0
KAM1 230804Z 33013KT M04/M11 A3015 RMK A01 T10381107  RH  059%=      5-min Rain = 0
KAM1 230805Z 33011KT M04/M11 A3015 RMK A01 T10371106  RH  059%=      5-min Rain = 0
KAM1 230806Z 33014KT M04/M11 A3015 RMK A01 T10371107  RH  059%=      5-min Rain = 0
KAM1 230807Z 33013KT M04/M11 A3015 RMK A01 T10381107  RH  058%=      5-min Rain = 0
KAM1 230808Z 33013KT M04/M11 A3015 RMK A01 T10371107  RH  058%=      5-min Rain = 0
KAM1 230809Z 33016G21KT M04/M11 A3015 RMK A01 T10371107  RH  058%=      5-min Rain = 0
KAM1 230810Z 33015G20KT M04/M11 A3015 RMK A01 T10361107  RH  058%=      5-min Rain = 0
KAM1 230811Z 32012KT M04/M11 A3015 RMK A01 T10361107  RH  058%=      5-min Rain = 0
KAM1 230812Z 33012KT M04/M11 A3015 RMK A01 T10361108  RH  058%=      5-min Rain = 0
KAM1 230813Z 33014KT M04/M11 A3015 RMK A01 T10371108  RH  058%=      5-min Rain = 0
KAM1 230814Z 33014KT M04/M11 A3015 RMK A01 T10361108  RH  058%=      5-min Rain = 0
KAM1 230815Z 32015KT M04/M11 A3015 RMK A01 T10361108  RH  058%=      5-min Rain = 0
KAM1 230816Z 33013G18KT M04/M11 A3015 RMK A01 T10361108  RH  057%=      5-min Rain = 0
KAM1 230817Z 33013KT M04/M11 A3015 RMK A01 T10361109  RH  057%=      5-min Rain = 0
KAM1 230818Z 32014KT M04/M11 A3015 RMK A01 T10361108  RH  057%=      5-min Rain = 0
KAM1 230819Z 33014KT M04/M11 A3015 RMK A01 T10371109  RH  057%=      5-min Rain = 0
KAM1 230820Z 33014KT M04/M11 A3015 RMK A01 T10361108  RH  057%=      5-min Rain = 0
KAM1 230821Z 32013KT M04/M11 A3015 RMK A01 T10361109  RH  057%=      5-min Rain = 0
KAM1 230822Z 33014KT M04/M11 A3015 RMK A01 T10361109  RH  057%=      5-min Rain = 0
KAM1 230823Z 32013KT M04/M11 A3015 RMK A01 T10361108  RH  057%=      5-min Rain = 0
KAM1 230824Z 32013KT M04/M11 A3015 RMK A01 T10361108  RH  057%=      5-min Rain = 0
KAM1 230825Z 33013KT M04/M11 A3015 RMK A01 T10371109  RH  057%=      5-min Rain = 0
KAM1 230826Z 32013KT M04/M11 A3015 RMK A01 T10371109  RH  057%=      5-min Rain = 0
KAM1 230827Z 33012KT M04/M11 A3015 RMK A01 T10371109  RH  058%=      5-min Rain = 0
KAM1 230828Z 33013KT M04/M11 A3015 RMK A01 T10381109  RH  058%=      5-min Rain = 0
KAM1 230829Z 33015KT M04/M11 A3015 RMK A01 T10381109  RH  058%=      5-min Rain = 0
KAM1 230830Z 33014KT M04/M11 A3015 RMK A01 T10381109  RH  058%=      5-min Rain = 0
KAM1 230831Z 32013KT M04/M11 A3015 RMK A01 T10381109  RH  058%=      5-min Rain = 0
KAM1 230832Z 32013KT M04/M11 A3015 RMK A01 T10391109  RH  058%=      5-min Rain = 0
KAM1 230833Z 32013KT M04/M11 A3015 RMK A01 T10391109  RH  058%=      5-min Rain = 0
KAM1 230834Z 32012KT M04/M11 A3015 RMK A01 T10401109  RH  058%=      5-min Rain = 0
KAM1 230835Z 32013KT M04/M11 A3015 RMK A01 T10401109  RH  059%=      5-min Rain = 0
KAM1 230836Z 32012KT M04/M11 A3015 RMK A01 T10401109  RH  059%=      5-min Rain = 0
KAM1 230837Z 32011KT M04/M11 A3016 RMK A01 T10411109  RH  059%=      5-min Rain = 0
KAM1 230838Z 32013KT M04/M11 A3016 RMK A01 T10411110  RH  059%=      5-min Rain = 0
KAM1 230839Z 32013KT M04/M11 A3016 RMK A01 T10411109  RH  059%=      5-min Rain = 0
KAM1 230840Z 32011KT M04/M11 A3016 RMK A01 T10411109  RH  059%=      5-min Rain = 0
KAM1 230841Z 32012KT M04/M11 A3016 RMK A01 T10411109  RH  059%=      5-min Rain = 0
KAM1 230842Z 32013KT M04/M11 A3016 RMK A01 T10411109  RH  059%=      5-min Rain = 0
KAM1 230843Z 32011KT M04/M11 A3016 RMK A01 T10411109  RH  059%=      5-min Rain = 0
KAM1 230844Z 31012KT M04/M11 A3016 RMK A01 T10411109  RH  059%=      5-min Rain = 0
KAM1 230845Z 31013KT M04/M11 A3016 RMK A01 T10411109  RH  059%=      5-min Rain = 0
KAM1 230846Z 31012KT M04/M11 A3016 RMK A01 T10421109  RH  059%=      5-min Rain = 0
KAM1 230847Z 31012KT M04/M11 A3016 RMK A01 T10421109  RH  060%=      5-min Rain = 0
KAM1 230848Z 31011KT M04/M11 A3016 RMK A01 T10421109  RH  060%=      5-min Rain = 0
KAM1 230849Z 31011KT M04/M11 A3016 RMK A01 T10431109  RH  060%=      5-min Rain = 0
KAM1 230850Z 31011KT M04/M11 A3016 RMK A01 T10431109  RH  060%=      5-min Rain = 0
KAM1 230851Z 31011KT M04/M11 A3016 RMK A01 T10441110  RH  060%=      5-min Rain = 0
KAM1 230852Z 31011KT M05/M11 A3017 RMK A01 T10451110  RH  060%=      5-min Rain = 0
KAM1 230853Z 31012KT M05/M11 A3017 RMK A01 T10451110  RH  061%=      5-min Rain = 0
KAM1 230854Z 30011KT M05/M11 A3017 RMK A01 T10461110  RH  061%=      5-min Rain = 0
KAM1 230855Z 30011KT M05/M11 A3017 RMK A01 T10461110  RH  061%=      5-min Rain = 0
KAM1 230856Z 30011KT M05/M11 A3017 RMK A01 T10471110  RH  061%=      5-min Rain = 0
KAM1 230857Z 31011KT M05/M11 A3017 RMK A01 T10471110  RH  061%=      5-min Rain = 0
KAM1 230858Z 31011KT M05/M11 A3017 RMK A01 T10471110  RH  062%=      5-min Rain = 0
KAM1 230859Z 31011KT M05/M11 A3017 RMK A01 T10471110  RH  062%=      5-min Rain = 0
KAM1 230900Z 31011KT M05/M11 A3017 RMK A01 T10471110  RH  062%=      5-min Rain = 0
KAM1 230901Z 31011KT M05/M11 A3017 RMK A01 T10481110  RH  062%=      5-min Rain = 0
KAM1 230902Z 31011KT M05/M11 A3017 RMK A01 T10481110  RH  062%=      5-min Rain = 0
KAM1 230903Z 31012KT M05/M11 A3017 RMK A01 T10481110  RH  062%=      5-min Rain = 0
KAM1 230904Z 31010KT M05/M11 A3017 RMK A01 T10481110  RH  062%=      5-min Rain = 0
KAM1 230905Z 31011KT M05/M11 A3016 RMK A01 T10491110  RH  062%=      5-min Rain = 0
KAM1 230906Z 31010KT M05/M11 A3016 RMK A01 T10491110  RH  062%=      5-min Rain = 0
KAM1 230907Z 31011KT M05/M11 A3016 RMK A01 T10491110  RH  062%=      5-min Rain = 0
KAM1 230908Z 31010KT M05/M11 A3016 RMK A01 T10491110  RH  062%=      5-min Rain = 0
KAM1 230909Z 31011KT M05/M11 A3017 RMK A01 T10501110  RH  062%=      5-min Rain = 0
KAM1 230910Z 31010KT M05/M11 A3017 RMK A01 T10501111  RH  062%=      5-min Rain = 0
KAM1 230911Z 31010KT M05/M11 A3017 RMK A01 T10511111  RH  063%=      5-min Rain = 0
KAM1 230912Z 31010KT M05/M11 A3017 RMK A01 T10521112  RH  063%=      5-min Rain = 0
KAM1 230913Z 31010KT M05/M11 A3017 RMK A01 T10531112  RH  063%=      5-min Rain = 0
KAM1 230914Z 31010KT M05/M11 A3017 RMK A01 T10531112  RH  063%=      5-min Rain = 0
KAM1 230915Z 31010KT M05/M11 A3017 RMK A01 T10541112  RH  064%=      5-min Rain = 0
KAM1 230916Z 31009KT M05/M11 A3017 RMK A01 T10541112  RH  064%=      5-min Rain = 0
KAM1 230917Z 31009KT M06/M11 A3017 RMK A01 T10551113  RH  064%=      5-min Rain = 0
KAM1 230918Z 30009KT M06/M11 A3017 RMK A01 T10571114  RH  064%=      5-min Rain = 0
KAM1 230919Z 30009KT M06/M11 A3017 RMK A01 T10581114  RH  065%=      5-min Rain = 0
KAM1 230920Z 31010KT M06/M11 A3017 RMK A01 T10581114  RH  065%=      5-min Rain = 0
KAM1 230921Z 30009KT M06/M11 A3017 RMK A01 T10581113  RH  065%=      5-min Rain = 0
KAM1 230922Z 31010KT M06/M11 A3017 RMK A01 T10581113  RH  065%=      5-min Rain = 0
KAM1 230923Z 32009KT M06/M11 A3017 RMK A01 T10581113  RH  065%=      5-min Rain = 0
KAM1 230924Z 31009KT M06/M11 A3017 RMK A01 T10571112  RH  065%=      5-min Rain = 0
KAM1 230925Z 32010KT M06/M11 A3017 RMK A01 T10571112  RH  065%=      5-min Rain = 0
KAM1 230926Z 32009KT M06/M11 A3017 RMK A01 T10571113  RH  065%=      5-min Rain = 0
KAM1 230927Z 32010KT M06/M11 A3017 RMK A01 T10571113  RH  065%=      5-min Rain = 0
KAM1 230928Z 32009KT M06/M11 A3017 RMK A01 T10571113  RH  065%=      5-min Rain = 0
KAM1 230929Z 31010KT M06/M11 A3017 RMK A01 T10571113  RH  065%=      5-min Rain = 0
KAM1 230930Z 31010KT M06/M11 A3016 RMK A01 T10581113  RH  065%=      5-min Rain = 0
KAM1 230931Z 31010KT M06/M11 A3016 RMK A01 T10571112  RH  065%=      5-min Rain = 0
KAM1 230932Z 31009KT M06/M11 A3016 RMK A01 T10561111  RH  065%=      5-min Rain = 0
KAM1 230933Z 31009KT M06/M11 A3016 RMK A01 T10551111  RH  065%=      5-min Rain = 0
KAM1 230934Z 31009KT M06/M11 A3016 RMK A01 T10551112  RH  065%=      5-min Rain = 0
KAM1 230935Z 31009KT M06/M11 A3016 RMK A01 T10551112  RH  064%=      5-min Rain = 0
KAM1 230936Z 31009KT M06/M11 A3016 RMK A01 T10551112  RH  064%=      5-min Rain = 0
KAM1 230937Z 31009KT M06/M11 A3016 RMK A01 T10551112  RH  064%=      5-min Rain = 0
KAM1 230938Z 31008KT M06/M11 A3016 RMK A01 T10551112  RH  064%=      5-min Rain = 0
KAM1 230939Z 31009KT M06/M11 A3016 RMK A01 T10551112  RH  064%=      5-min Rain = 0
KAM1 230940Z 31009KT M06/M11 A3016 RMK A01 T10551112  RH  064%=      5-min Rain = 0
KAM1 230941Z 31009KT M06/M11 A3016 RMK A01 T10551112  RH  064%=      5-min Rain = 0
KAM1 230942Z 31009KT M06/M11 A3016 RMK A01 T10551112  RH  064%=      5-min Rain = 0
KAM1 230943Z 31010KT M05/M11 A3016 RMK A01 T10541112  RH  064%=      5-min Rain = 0
KAM1 230944Z 31009KT M05/M11 A3016 RMK A01 T10541112  RH  064%=      5-min Rain = 0
KAM1 230945Z 31008KT M06/M11 A3016 RMK A01 T10551112  RH  064%=      5-min Rain = 0
KAM1 230946Z 31008KT M06/M11 A3016 RMK A01 T10551113  RH  064%=      5-min Rain = 0
KAM1 230947Z 31008KT M06/M11 A3016 RMK A01 T10561113  RH  064%=      5-min Rain = 0
KAM1 230948Z 31009KT M06/M11 A3016 RMK A01 T10561113  RH  064%=      5-min Rain = 0
KAM1 230949Z 31009KT M06/M11 A3016 RMK A01 T10571114  RH  064%=      5-min Rain = 0
KAM1 230950Z 31009KT M06/M11 A3016 RMK A01 T10571114  RH  064%=      5-min Rain = 0
KAM1 230951Z 31009KT M06/M11 A3016 RMK A01 T10571114  RH  064%=      5-min Rain = 0
KAM1 230952Z 31009KT M06/M11 A3016 RMK A01 T10581114  RH  064%=      5-min Rain = 0
KAM1 230953Z 31009KT M06/M11 A3016 RMK A01 T10581114  RH  064%=      5-min Rain = 0
KAM1 230954Z 31009KT M06/M11 A3016 RMK A01 T10581114  RH  065%=      5-min Rain = 0
KAM1 230955Z 31009KT M06/M11 A3016 RMK A01 T10581114  RH  065%=      5-min Rain = 0
KAM1 230956Z 30009KT M06/M11 A3016 RMK A01 T10591114  RH  065%=      5-min Rain = 0
KAM1 230957Z 30009KT M06/M12 A3016 RMK A01 T10591115  RH  065%=      5-min Rain = 0
KAM1 230958Z 30009KT M06/M12 A3016 RMK A01 T10591115  RH  065%=      5-min Rain = 0
KAM1 230959Z 30009KT M06/M11 A3016 RMK A01 T10591114  RH  065%=      5-min Rain = 0
KAM1 231000Z 30009KT M06/M11 A3016 RMK A01 T10581114  RH  065%=      5-min Rain = 0
KAM1 231001Z 30009KT M06/M11 A3016 RMK A01 T10581114  RH  065%=      5-min Rain = 0
KAM1 231002Z 30009KT M06/M11 A3016 RMK A01 T10591114  RH  065%=      5-min Rain = 0
KAM1 231003Z 30009KT M06/M11 A3016 RMK A01 T10581114  RH  065%=      5-min Rain = 0
KAM1 231004Z 30009KT M06/M11 A3016 RMK A01 T10581114  RH  065%=      5-min Rain = 0
KAM1 231005Z 30010KT M06/M11 A3016 RMK A01 T10581114  RH  065%=      5-min Rain = 0
KAM1 231006Z 30009KT M06/M11 A3016 RMK A01 T10581114  RH  064%=      5-min Rain = 0
KAM1 231007Z 30010KT M06/M11 A3016 RMK A01 T10581114  RH  064%=      5-min Rain = 0
KAM1 231008Z 30009KT M06/M12 A3016 RMK A01 T10581115  RH  064%=      5-min Rain = 0
KAM1 231009Z 30009KT M06/M12 A3016 RMK A01 T10591115  RH  065%=      5-min Rain = 0
KAM1 231010Z 30009KT M06/M12 A3016 RMK A01 T10591115  RH  065%=      5-min Rain = 0
KAM1 231011Z 30009KT M06/M12 A3016 RMK A01 T10591115  RH  065%=      5-min Rain = 0
KAM1 231012Z 30009KT M06/M12 A3016 RMK A01 T10591115  RH  065%=      5-min Rain = 0
KAM1 231013Z 30009KT M06/M12 A3016 RMK A01 T10601115  RH  065%=      5-min Rain = 0
KAM1 231014Z 30008KT M06/M12 A3016 RMK A01 T10601115  RH  065%=      5-min Rain = 0
KAM1 231015Z 30009KT M06/M12 A3016 RMK A01 T10601116  RH  065%=      5-min Rain = 0
KAM1 231016Z 30009KT M06/M12 A3016 RMK A01 T10611117  RH  065%=      5-min Rain = 0
KAM1 231017Z 30009KT M06/M12 A3016 RMK A01 T10611117  RH  065%=      5-min Rain = 0
KAM1 231018Z 30009KT M06/M12 A3015 RMK A01 T10611117  RH  065%=      5-min Rain = 0
KAM1 231019Z 30008KT M06/M12 A3015 RMK A01 T10621117  RH  065%=      5-min Rain = 0
KAM1 231020Z 30009KT M06/M12 A3015 RMK A01 T10631117  RH  065%=      5-min Rain = 0
KAM1 231021Z 30009KT M06/M12 A3015 RMK A01 T10631117  RH  065%=      5-min Rain = 0
KAM1 231022Z 30009KT M06/M12 A3015 RMK A01 T10631117  RH  066%=      5-min Rain = 0
KAM1 231023Z 30009KT M06/M12 A3015 RMK A01 T10631117  RH  066%=      5-min Rain = 0
KAM1 231024Z 30009KT M06/M12 A3015 RMK A01 T10631117  RH  066%=      5-min Rain = 0
KAM1 231025Z 29009KT M06/M12 A3015 RMK A01 T10631117  RH  066%=      5-min Rain = 0
KAM1 231026Z 29009KT M06/M12 A3015 RMK A01 T10631117  RH  066%=      5-min Rain = 0
KAM1 231027Z 29009KT M06/M12 A3015 RMK A01 T10631117  RH  066%=      5-min Rain = 0
KAM1 231028Z 29008KT M06/M12 A3015 RMK A01 T10641117  RH  066%=      5-min Rain = 0
KAM1 231029Z 29008KT M06/M12 A3015 RMK A01 T10631117  RH  066%=      5-min Rain = 0
KAM1 231030Z 29009KT M06/M12 A3015 RMK A01 T10631117  RH  066%=      5-min Rain = 0
KAM1 231031Z 29009KT M06/M12 A3015 RMK A01 T10631117  RH  065%=      5-min Rain = 0
KAM1 231032Z 30009KT M06/M12 A3015 RMK A01 T10631117  RH  065%=      5-min Rain = 0
KAM1 231033Z 29009KT M06/M12 A3015 RMK A01 T10621116  RH  065%=      5-min Rain = 0
KAM1 231034Z 29009KT M06/M12 A3015 RMK A01 T10611116  RH  065%=      5-min Rain = 0
KAM1 231035Z 29008KT M06/M12 A3015 RMK A01 T10611116  RH  065%=      5-min Rain = 0
KAM1 231036Z 29009KT M06/M12 A3015 RMK A01 T10611116  RH  065%=      5-min Rain = 0
KAM1 231037Z 29009KT M06/M12 A3015 RMK A01 T10611117  RH  065%=      5-min Rain = 0
KAM1 231038Z 29009KT M06/M12 A3015 RMK A01 T10611117  RH  065%=      5-min Rain = 0
KAM1 231039Z 29009KT M06/M12 A3015 RMK A01 T10611117  RH  065%=      5-min Rain = 0
KAM1 231040Z 29009KT M06/M12 A3015 RMK A01 T10611116  RH  065%=      5-min Rain = 0
KAM1 231041Z 29008KT M06/M12 A3015 RMK A01 T10601116  RH  065%=      5-min Rain = 0
KAM1 231042Z 29008KT M06/M12 A3015 RMK A01 T10601116  RH  065%=      5-min Rain = 0
KAM1 231043Z 28007KT M06/M12 A3015 RMK A01 T10611117  RH  065%=      5-min Rain = 0
KAM1 231044Z 28007KT M06/M12 A3015 RMK A01 T10621118  RH  065%=      5-min Rain = 0
KAM1 231045Z 28007KT M06/M12 A3015 RMK A01 T10631118  RH  065%=      5-min Rain = 0
KAM1 231046Z 28008KT M06/M12 A3015 RMK A01 T10641119  RH  065%=      5-min Rain = 0
KAM1 231047Z 27007KT M07/M12 A3015 RMK A01 T10651119  RH  066%=      5-min Rain = 0
KAM1 231048Z 27007KT M07/M12 A3015 RMK A01 T10671119  RH  066%=      5-min Rain = 0
KAM1 231049Z 27008KT M07/M12 A3015 RMK A01 T10701120  RH  067%=      5-min Rain = 0
KAM1 231050Z 27008KT M07/M12 A3015 RMK A01 T10731121  RH  068%=      5-min Rain = 0
KAM1 231051Z 27009KT M08/M12 A3015 RMK A01 T10751121  RH  070%=      5-min Rain = 0
KAM1 231052Z 27008KT M08/M12 A3015 RMK A01 T10771120  RH  071%=      5-min Rain = 0
KAM1 231053Z 27009KT M08/M12 A3015 RMK A01 T10781119  RH  072%=      5-min Rain = 0
KAM1 231054Z 27009KT M08/M12 A3015 RMK A01 T10781119  RH  073%=      5-min Rain = 0
KAM1 231055Z 28009KT M08/M12 A3015 RMK A01 T10791118  RH  073%=      5-min Rain = 0
KAM1 231056Z 28009KT M08/M12 A3015 RMK A01 T10791118  RH  073%=      5-min Rain = 0
KAM1 231057Z 28008KT M08/M12 A3015 RMK A01 T10791118  RH  074%=      5-min Rain = 0
KAM1 231058Z 28008KT M08/M12 A3015 RMK A01 T10801119  RH  074%=      5-min Rain = 0
KAM1 231059Z 28008KT M08/M12 A3015 RMK A01 T10811119  RH  074%=      5-min Rain = 0
KAM1 231100Z 28008KT M08/M12 A3015 RMK A01 T10811119  RH  074%=      5-min Rain = 0
KAM1 231101Z 28008KT M08/M12 A3015 RMK A01 T10821119  RH  075%=      5-min Rain = 0
KAM1 231102Z 29008KT M08/M12 A3015 RMK A01 T10821119  RH  075%=      5-min Rain = 0
KAM1 231103Z 29008KT M08/M12 A3015 RMK A01 T10821118  RH  075%=      5-min Rain = 0
KAM1 231104Z 29008KT M08/M12 A3015 RMK A01 T10821118  RH  075%=      5-min Rain = 0
KAM1 231105Z 29008KT M08/M12 A3015 RMK A01 T10821118  RH  075%=      5-min Rain = 0
KAM1 231106Z 29008KT M08/M12 A3015 RMK A01 T10831118  RH  075%=      5-min Rain = 0
KAM1 231107Z 29009KT M08/M12 A3015 RMK A01 T10831118  RH  076%=      5-min Rain = 0
KAM1 231108Z 29009KT M08/M12 A3015 RMK A01 T10831118  RH  076%=      5-min Rain = 0
KAM1 231109Z 29009KT M08/M12 A3015 RMK A01 T10831118  RH  076%=      5-min Rain = 0
KAM1 231110Z 29008KT M08/M12 A3015 RMK A01 T10831118  RH  076%=      5-min Rain = 0
KAM1 231111Z 29008KT M08/M12 A3015 RMK A01 T10831118  RH  076%=      5-min Rain = 0
KAM1 231112Z 29008KT M08/M12 A3015 RMK A01 T10831118  RH  076%=      5-min Rain = 0
KAM1 231113Z 29008KT M08/M12 A3014 RMK A01 T10831119  RH  076%=      5-min Rain = 0
KAM1 231114Z 29008KT M08/M12 A3014 RMK A01 T10831119  RH  075%=      5-min Rain = 0
KAM1 231115Z 29008KT M08/M12 A3014 RMK A01 T10821119  RH  075%=      5-min Rain = 0
KAM1 231116Z 29008KT M08/M12 A3014 RMK A01 T10831119  RH  075%=      5-min Rain = 0
KAM1 231117Z 29008KT M08/M12 A3014 RMK A01 T10831120  RH  075%=      5-min Rain = 0
KAM1 231118Z 29008KT M08/M12 A3014 RMK A01 T10831120  RH  075%=      5-min Rain = 0
KAM1 231119Z 29008KT M08/M12 A3014 RMK A01 T10831120  RH  074%=      5-min Rain = 0
KAM1 231120Z 29008KT M08/M12 A3014 RMK A01 T10831120  RH  074%=      5-min Rain = 0
KAM1 231121Z 29008KT M08/M12 A3014 RMK A01 T10831120  RH  074%=      5-min Rain = 0
KAM1 231122Z 29008KT M08/M12 A3014 RMK A01 T10831121  RH  074%=      5-min Rain = 0
KAM1 231123Z 29008KT M08/M12 A3014 RMK A01 T10841121  RH  074%=      5-min Rain = 0
KAM1 231124Z 29008KT M08/M12 A3014 RMK A01 T10841122  RH  074%=      5-min Rain = 0
KAM1 231125Z 29008KT M09/M12 A3014 RMK A01 T10851122  RH  075%=      5-min Rain = 0
KAM1 231126Z 29008KT M09/M12 A3014 RMK A01 T10851122  RH  075%=      5-min Rain = 0
KAM1 231127Z 29008KT M09/M12 A3014 RMK A01 T10851122  RH  075%=      5-min Rain = 0
KAM1 231128Z 29008KT M09/M12 A3014 RMK A01 T10851122  RH  075%=      5-min Rain = 0
KAM1 231129Z 29007KT M09/M12 A3014 RMK A01 T10851121  RH  075%=      5-min Rain = 0
KAM1 231130Z 29007KT M09/M12 A3014 RMK A01 T10851121  RH  075%=      5-min Rain = 0
KAM1 231131Z 29007KT M09/M12 A3014 RMK A01 T10851121  RH  075%=      5-min Rain = 0
KAM1 231132Z 29007KT M09/M12 A3014 RMK A01 T10851121  RH  075%=      5-min Rain = 0
KAM1 231133Z 29007KT M09/M12 A3014 RMK A01 T10851121  RH  075%=      5-min Rain = 0
KAM1 231134Z 29007KT M09/M12 A3014 RMK A01 T10851121  RH  075%=      5-min Rain = 0
KAM1 231135Z 29007KT M09/M12 A3014 RMK A01 T10851121  RH  075%=      5-min Rain = 0
KAM1 231136Z 29007KT M09/M12 A3014 RMK A01 T10851122  RH  075%=      5-min Rain = 0
KAM1 231137Z 29007KT M09/M12 A3014 RMK A01 T10851122  RH  075%=      5-min Rain = 0
KAM1 231138Z 29007KT M09/M12 A3014 RMK A01 T10861122  RH  075%=      5-min Rain = 0
KAM1 231139Z 29007KT M09/M12 A3014 RMK A01 T10861123  RH  075%=      5-min Rain = 0
KAM1 231140Z 29007KT M09/M12 A3014 RMK A01 T10871124  RH  075%=      5-min Rain = 0
KAM1 231141Z 29006KT M09/M13 A3014 RMK A01 T10881125  RH  075%=      5-min Rain = 0
KAM1 231142Z 28006KT M09/M13 A3014 RMK A01 T10901126  RH  075%=      5-min Rain = 0
KAM1 231143Z 28006KT M09/M13 A3014 RMK A01 T10911126  RH  075%=      5-min Rain = 0
KAM1 231144Z 28006KT M09/M13 A3014 RMK A01 T10921127  RH  075%=      5-min Rain = 0
KAM1 231145Z 27005KT M09/M13 A3014 RMK A01 T10941129  RH  076%=      5-min Rain = 0
KAM1 231146Z 27005KT M10/M13 A3014 RMK A01 T10961131  RH  076%=      5-min Rain = 0
KAM1 231147Z 27005KT M10/M13 A3014 RMK A01 T10981133  RH  076%=      5-min Rain = 0
KAM1 231148Z 27005KT M10/M14 A3014 RMK A01 T11011135  RH  076%=      5-min Rain = 0
KAM1 231149Z 26006KT M10/M14 A3014 RMK A01 T11021135  RH  077%=      5-min Rain = 0
KAM1 231150Z 26006KT M10/M13 A3014 RMK A01 T11031134  RH  078%=      5-min Rain = 0
KAM1 231151Z 26006KT M10/M13 A3015 RMK A01 T11041134  RH  079%=      5-min Rain = 0
KAM1 231152Z 25006KT M11/M13 A3015 RMK A01 T11051134  RH  080%=      5-min Rain = 0
KAM1 231153Z 26006KT M11/M13 A3015 RMK A01 T11061134  RH  080%=      5-min Rain = 0
KAM1 231154Z 26006KT M11/M13 A3015 RMK A01 T11071133  RH  081%=      5-min Rain = 0
KAM1 231155Z 26006KT M11/M13 A3015 RMK A01 T11071133  RH  081%=      5-min Rain = 0
KAM1 231156Z 26006KT M11/M13 A3015 RMK A01 T11081133  RH  082%=      5-min Rain = 0
KAM1 231157Z 26006KT M11/M13 A3015 RMK A01 T11081133  RH  082%=      5-min Rain = 0
KAM1 231158Z 27006KT M11/M13 A3015 RMK A01 T11091133  RH  082%=      5-min Rain = 0
KAM1 231159Z 27006KT M11/M13 A3015 RMK A01 T11091134  RH  082%=      5-min Rain = 0
KAM1 231200Z 26006KT M11/M13 A3015 RMK A01 T11101134  RH  082%=      5-min Rain = 0
KAM1 231201Z 26006KT M11/M13 A3015 RMK A01 T11101134  RH  083%=      5-min Rain = 0
KAM1 231202Z 26006KT M11/M13 A3015 RMK A01 T11101134  RH  083%=      5-min Rain = 0
KAM1 231203Z 26006KT M11/M13 A3015 RMK A01 T11111134  RH  083%=      5-min Rain = 0
KAM1 231204Z 25006KT M11/M13 A3015 RMK A01 T11111134  RH  083%=      5-min Rain = 0
KAM1 231205Z 25006KT M11/M13 A3015 RMK A01 T11111134  RH  083%=      5-min Rain = 0
KAM1 231206Z 24007KT M11/M13 A3014 RMK A01 T11111134  RH  083%=      5-min Rain = 0
KAM1 231207Z 25007KT M11/M13 A3014 RMK A01 T11111134  RH  084%=      5-min Rain = 0
KAM1 231208Z 25007KT M11/M13 A3015 RMK A01 T11111133  RH  084%=      5-min Rain = 0
KAM1 231209Z 25007KT M11/M13 A3015 RMK A01 T11111133  RH  084%=      5-min Rain = 0
KAM1 231210Z 25007KT M11/M13 A3015 RMK A01 T11111133  RH  084%=      5-min Rain = 0
KAM1 231211Z 25007KT M11/M13 A3015 RMK A01 T11111132  RH  084%=      5-min Rain = 0
KAM1 231212Z 25007KT M11/M13 A3015 RMK A01 T11101131  RH  084%=      5-min Rain = 0
KAM1 231213Z 26007KT M11/M13 A3015 RMK A01 T11091129  RH  085%=      5-min Rain = 0
KAM1 231214Z 26007KT M11/M13 A3015 RMK A01 T11071128  RH  085%=      5-min Rain = 0
KAM1 231215Z 25007KT M11/M13 A3015 RMK A01 T11071128  RH  084%=      5-min Rain = 0
KAM1 231216Z 25007KT M11/M13 A3015 RMK A01 T11061128  RH  084%=      5-min Rain = 0
KAM1 231217Z 25007KT M11/M13 A3015 RMK A01 T11061127  RH  084%=      5-min Rain = 0
KAM1 231218Z 25007KT M11/M13 A3015 RMK A01 T11061127  RH  084%=      5-min Rain = 0
KAM1 231219Z 25007KT M11/M13 A3015 RMK A01 T11051128  RH  084%=      5-min Rain = 0
KAM1 231220Z 25007KT M11/M13 A3015 RMK A01 T11061129  RH  083%=      5-min Rain = 0
KAM1 231221Z 25007KT M11/M13 A3015 RMK A01 T11071130  RH  083%=      5-min Rain = 0
KAM1 231222Z 25007KT M11/M13 A3015 RMK A01 T11071130  RH  083%=      5-min Rain = 0
KAM1 231223Z 25007KT M11/M13 A3015 RMK A01 T11071129  RH  084%=      5-min Rain = 0
KAM1 231224Z 25007KT M11/M13 A3015 RMK A01 T11071129  RH  084%=      5-min Rain = 0
KAM1 231225Z 25007KT M11/M13 A3015 RMK A01 T11071130  RH  083%=      5-min Rain = 0
KAM1 231226Z 25007KT M11/M13 A3015 RMK A01 T11071130  RH  084%=      5-min Rain = 0
KAM1 231227Z 26007KT M11/M13 A3015 RMK A01 T11071129  RH  084%=      5-min Rain = 0
KAM1 231228Z 26007KT M11/M13 A3015 RMK A01 T11061128  RH  084%=      5-min Rain = 0
KAM1 231229Z 26007KT M11/M13 A3015 RMK A01 T11061127  RH  084%=      5-min Rain = 0
KAM1 231230Z 26007KT M11/M13 A3015 RMK A01 T11051127  RH  084%=      5-min Rain = 0
KAM1 231231Z 26007KT M11/M13 A3015 RMK A01 T11051128  RH  084%=      5-min Rain = 0
KAM1 231232Z 26007KT M11/M13 A3015 RMK A01 T11061129  RH  083%=      5-min Rain = 0
KAM1 231233Z 26007KT M11/M13 A3015 RMK A01 T11061129  RH  083%=      5-min Rain = 0
KAM1 231234Z 26007KT M11/M13 A3015 RMK A01 T11061129  RH  083%=      5-min Rain = 0
KAM1 231235Z 27007KT M11/M13 A3015 RMK A01 T11071130  RH  083%=      5-min Rain = 0
KAM1 231236Z 27007KT M11/M13 A3015 RMK A01 T11071129  RH  083%=      5-min Rain = 0
KAM1 231237Z 27007KT M11/M13 A3015 RMK A01 T11071129  RH  084%=      5-min Rain = 0
KAM1 231238Z 27007KT M11/M13 A3015 RMK A01 T11061129  RH  084%=      5-min Rain = 0
KAM1 231239Z 27007KT M11/M13 A3015 RMK A01 T11061128  RH  084%=      5-min Rain = 0
KAM1 231240Z 27006KT M11/M13 A3015 RMK A01 T11061128  RH  084%=      5-min Rain = 0
KAM1 231241Z 27007KT M11/M13 A3015 RMK A01 T11061128  RH  084%=      5-min Rain = 0
KAM1 231242Z 27007KT M11/M13 A3015 RMK A01 T11061128  RH  084%=      5-min Rain = 0
KAM1 231243Z 26008KT M11/M13 A3015 RMK A01 T11061129  RH  083%=      5-min Rain = 0
KAM1 231244Z 26007KT M11/M13 A3015 RMK A01 T11061129  RH  083%=      5-min Rain = 0
KAM1 231245Z 26008KT M11/M13 A3015 RMK A01 T11071130  RH  083%=      5-min Rain = 0
KAM1 231246Z 26007KT M11/M13 A3015 RMK A01 T11071131  RH  083%=      5-min Rain = 0
KAM1 231247Z 25007KT M11/M13 A3016 RMK A01 T11081132  RH  082%=      5-min Rain = 0
KAM1 231248Z 25008KT M11/M13 A3016 RMK A01 T11091132  RH  083%=      5-min Rain = 0
KAM1 231249Z 25008KT M11/M13 A3016 RMK A01 T11081131  RH  083%=      5-min Rain = 0
KAM1 231250Z 25008KT M11/M13 A3016 RMK A01 T11071130  RH  084%=      5-min Rain = 0
KAM1 231251Z 25008KT M11/M13 A3016 RMK A01 T11071129  RH  084%=      5-min Rain = 0
KAM1 231252Z 25008KT M11/M13 A3016 RMK A01 T11061128  RH  084%=      5-min Rain = 0
KAM1 231253Z 25008KT M11/M13 A3016 RMK A01 T11051127  RH  084%=      5-min Rain = 0
KAM1 231254Z 25008KT M10/M13 A3016 RMK A01 T11041127  RH  084%=      5-min Rain = 0
KAM1 231255Z 25008KT M10/M13 A3016 RMK A01 T11041126  RH  084%=      5-min Rain = 0
KAM1 231256Z 25008KT M10/M13 A3016 RMK A01 T11031126  RH  083%=      5-min Rain = 0
KAM1 231257Z 25008KT M10/M13 A3016 RMK A01 T11031126  RH  083%=      5-min Rain = 0
KAM1 231258Z 25008KT M10/M13 A3016 RMK A01 T11031126  RH  083%=      5-min Rain = 0
KAM1 231259Z 25008KT M10/M13 A3016 RMK A01 T11031126  RH  083%=      5-min Rain = 0
KAM1 231300Z 25008KT M10/M13 A3016 RMK A01 T11031126  RH  083%=      5-min Rain = 0
KAM1 231301Z 25008KT M10/M13 A3016 RMK A01 T11021125  RH  083%=      5-min Rain = 0
KAM1 231302Z 25008KT M10/M13 A3016 RMK A01 T11021126  RH  083%=      5-min Rain = 0
KAM1 231303Z 25008KT M10/M13 A3016 RMK A01 T11021126  RH  083%=      5-min Rain = 0
KAM1 231304Z 25008KT M10/M13 A3016 RMK A01 T11021125  RH  083%=      5-min Rain = 0
KAM1 231305Z 25008KT M10/M13 A3016 RMK A01 T11021125  RH  083%=      5-min Rain = 0
KAM1 231306Z 25008KT M10/M13 A3016 RMK A01 T11021125  RH  083%=      5-min Rain = 0
KAM1 231307Z 25008KT M10/M13 A3016 RMK A01 T11021126  RH  083%=      5-min Rain = 0
KAM1 231308Z 25009KT M10/M13 A3016 RMK A01 T11031127  RH  083%=      5-min Rain = 0
KAM1 231309Z 25009KT M10/M13 A3016 RMK A01 T11031127  RH  083%=      5-min Rain = 0
KAM1 231310Z 25008KT M10/M13 A3016 RMK A01 T11041128  RH  083%=      5-min Rain = 0
KAM1 231311Z 26008KT M10/M13 A3016 RMK A01 T11041127  RH  083%=      5-min Rain = 0
KAM1 231312Z 25008KT M10/M13 A3016 RMK A01 T11031127  RH  083%=      5-min Rain = 0
KAM1 231313Z 25008KT M10/M13 A3016 RMK A01 T11041127  RH  083%=      5-min Rain = 0
KAM1 231314Z 26008KT M10/M13 A3016 RMK A01 T11041127  RH  083%=      5-min Rain = 0
KAM1 231315Z 26008KT M10/M13 A3016 RMK A01 T11041127  RH  083%=      5-min Rain = 0
KAM1 231316Z 26008KT M10/M13 A3016 RMK A01 T11041128  RH  083%=      5-min Rain = 0
KAM1 231317Z 26008KT M10/M13 A3016 RMK A01 T11041127  RH  083%=      5-min Rain = 0
KAM1 231318Z 26008KT M11/M13 A3016 RMK A01 T11051128  RH  083%=      5-min Rain = 0
KAM1 231319Z 26007KT M11/M13 A3016 RMK A01 T11051129  RH  083%=      5-min Rain = 0
KAM1 231320Z 27006KT M11/M13 A3015 RMK A01 T11051129  RH  083%=      5-min Rain = 0
KAM1 231321Z 27006KT M11/M13 A3015 RMK A01 T11051129  RH  083%=      5-min Rain = 0
KAM1 231322Z 26007KT M11/M13 A3015 RMK A01 T11061129  RH  083%=      5-min Rain = 0
KAM1 231323Z 26006KT M11/M13 A3015 RMK A01 T11061131  RH  082%=      5-min Rain = 0
KAM1 231324Z 25006KT M11/M13 A3015 RMK A01 T11081132  RH  082%=      5-min Rain = 0
KAM1 231325Z 26006KT M11/M13 A3015 RMK A01 T11091133  RH  082%=      5-min Rain = 0
KAM1 231326Z 25005KT M11/M13 A3015 RMK A01 T11091134  RH  082%=      5-min Rain = 0
KAM1 231327Z 24005KT M11/M14 A3015 RMK A01 T11111135  RH  082%=      5-min Rain = 0
KAM1 231328Z 23005KT M11/M14 A3015 RMK A01 T11121136  RH  082%=      5-min Rain = 0
KAM1 231329Z 24006KT M11/M14 A3015 RMK A01 T11121136  RH  083%=      5-min Rain = 0
KAM1 231330Z 24006KT M11/M14 A3016 RMK A01 T11121135  RH  083%=      5-min Rain = 0
KAM1 231331Z 25006KT M11/M13 A3016 RMK A01 T11111134  RH  084%=      5-min Rain = 0
KAM1 231332Z 25006KT M11/M13 A3015 RMK A01 T11111133  RH  084%=      5-min Rain = 0
KAM1 231333Z 26006KT M11/M13 A3015 RMK A01 T11101132  RH  084%=      5-min Rain = 0
KAM1 231334Z 26006KT M11/M13 A3015 RMK A01 T11091131  RH  084%=      5-min Rain = 0
KAM1 231335Z 26006KT M11/M13 A3015 RMK A01 T11081130  RH  084%=      5-min Rain = 0
KAM1 231336Z 26006KT M11/M13 A3015 RMK A01 T11081130  RH  084%=      5-min Rain = 0
KAM1 231337Z 26006KT M11/M13 A3015 RMK A01 T11081130  RH  083%=      5-min Rain = 0
KAM1 231338Z 26006KT M11/M13 A3015 RMK A01 T11081131  RH  083%=      5-min Rain = 0
KAM1 231339Z 26006KT M11/M13 A3015 RMK A01 T11081131  RH  083%=      5-min Rain = 0
KAM1 231340Z 26006KT M11/M13 A3015 RMK A01 T11071130  RH  083%=      5-min Rain = 0
KAM1 231341Z 26006KT M11/M13 A3015 RMK A01 T11071130  RH  083%=      5-min Rain = 0
KAM1 231342Z 25006KT M11/M13 A3015 RMK A01 T11071130  RH  083%=      5-min Rain = 0
KAM1 231343Z 26006KT M11/M13 A3015 RMK A01 T11071130  RH  083%=      5-min Rain = 0
KAM1 231344Z 26006KT M11/M13 A3015 RMK A01 T11071131  RH  083%=      5-min Rain = 0
KAM1 231345Z 26006KT M11/M13 A3015 RMK A01 T11061130  RH  083%=      5-min Rain = 0
KAM1 231346Z 26006KT M11/M13 A3015 RMK A01 T11061130  RH  082%=      5-min Rain = 0
KAM1 231347Z 25006KT M11/M13 A3015 RMK A01 T11061131  RH  082%=      5-min Rain = 0
KAM1 231348Z 25006KT M11/M13 A3015 RMK A01 T11061131  RH  082%=      5-min Rain = 0
KAM1 231349Z 26006KT M11/M13 A3015 RMK A01 T11061130  RH  082%=      5-min Rain = 0
KAM1 231350Z 25005KT M11/M13 A3015 RMK A01 T11061130  RH  082%=      5-min Rain = 0
KAM1 231351Z 25006KT M11/M13 A3015 RMK A01 T11051130  RH  082%=      5-min Rain = 0
KAM1 231352Z 25006KT M11/M13 A3015 RMK A01 T11051130  RH  082%=      5-min Rain = 0
KAM1 231353Z 25006KT M11/M13 A3015 RMK A01 T11051130  RH  082%=      5-min Rain = 0
KAM1 231354Z 26006KT M11/M13 A3016 RMK A01 T11051130  RH  082%=      5-min Rain = 0
KAM1 231355Z 26006KT M11/M13 A3016 RMK A01 T11051130  RH  082%=      5-min Rain = 0
KAM1 231356Z 26006KT M11/M13 A3016 RMK A01 T11051130  RH  081%=      5-min Rain = 0
KAM1 231357Z 26006KT M10/M13 A3016 RMK A01 T11041130  RH  081%=      5-min Rain = 0
KAM1 231358Z 26006KT M11/M13 A3016 RMK A01 T11051131  RH  081%=      5-min Rain = 0
KAM1 231359Z 26006KT M11/M13 A3016 RMK A01 T11051131  RH  081%=      5-min Rain = 0
KAM1 231400Z 26006KT M10/M13 A3016 RMK A01 T11041131  RH  081%=      5-min Rain = 0
KAM1 231401Z 26006KT M11/M13 A3016 RMK A01 T11051131  RH  081%=      5-min Rain = 0
KAM1 231402Z 26006KT M10/M13 A3016 RMK A01 T11041131  RH  081%=      5-min Rain = 0
KAM1 231403Z 26005KT M10/M13 A3016 RMK A01 T11041132  RH  080%=      5-min Rain = 0
KAM1 231404Z 26005KT M11/M13 A3016 RMK A01 T11051132  RH  080%=      5-min Rain = 0
KAM1 231405Z 26005KT M10/M13 A3016 RMK A01 T11041132  RH  080%=      5-min Rain = 0
KAM1 231406Z 26005KT M10/M13 A3016 RMK A01 T11041132  RH  080%=      5-min Rain = 0
KAM1 231407Z 26005KT M11/M13 A3016 RMK A01 T11051132  RH  080%=      5-min Rain = 0
KAM1 231408Z 26005KT M10/M13 A3016 RMK A01 T11041132  RH  080%=      5-min Rain = 0
KAM1 231409Z 26005KT M10/M13 A3016 RMK A01 T11041132  RH  080%=      5-min Rain = 0
KAM1 231410Z 27005KT M10/M13 A3016 RMK A01 T11041132  RH  080%=      5-min Rain = 0
KAM1 231411Z 26005KT M10/M13 A3016 RMK A01 T11041131  RH  080%=      5-min Rain = 0
KAM1 231412Z 26005KT M10/M13 A3016 RMK A01 T11031131  RH  080%=      5-min Rain = 0
KAM1 231413Z 26005KT M10/M13 A3016 RMK A01 T11031130  RH  080%=      5-min Rain = 0
KAM1 231414Z 26005KT M10/M13 A3016 RMK A01 T11021130  RH  080%=      5-min Rain = 0
KAM1 231415Z 26005KT M10/M13 A3016 RMK A01 T11021130  RH  080%=      5-min Rain = 0
KAM1 231416Z 26005KT M10/M13 A3016 RMK A01 T11011130  RH  080%=      5-min Rain = 0
KAM1 231417Z 26005KT M10/M13 A3016 RMK A01 T11011129  RH  080%=      5-min Rain = 0
KAM1 231418Z 26005KT M10/M13 A3016 RMK A01 T11001128  RH  080%=      5-min Rain = 0
KAM1 231419Z 26005KT M10/M13 A3016 RMK A01 T10991127  RH  080%=      5-min Rain = 0
KAM1 231420Z 26005KT M10/M13 A3016 RMK A01 T10981125  RH  080%=      5-min Rain = 0
KAM1 231421Z 26005KT M10/M12 A3015 RMK A01 T10961124  RH  080%=      5-min Rain = 0
KAM1 231422Z 25006KT M10/M12 A3015 RMK A01 T10951122  RH  080%=      5-min Rain = 0
KAM1 231423Z 26006KT M09/M12 A3015 RMK A01 T10931120  RH  081%=      5-min Rain = 0
KAM1 231424Z 25006KT M09/M12 A3015 RMK A01 T10911118  RH  081%=      5-min Rain = 0
KAM1 231425Z 26006KT M09/M12 A3015 RMK A01 T10891116  RH  081%=      5-min Rain = 0
KAM1 231426Z 26005KT M09/M11 A3015 RMK A01 T10871114  RH  081%=      5-min Rain = 0
KAM1 231427Z 26005KT M09/M11 A3015 RMK A01 T10851113  RH  081%=      5-min Rain = 0
KAM1 231428Z 26005KT M08/M11 A3015 RMK A01 T10831110  RH  080%=      5-min Rain = 0
KAM1 231429Z 26005KT M08/M11 A3015 RMK A01 T10811109  RH  080%=      5-min Rain = 0
KAM1 231430Z 26005KT M08/M11 A3016 RMK A01 T10791108  RH  080%=      5-min Rain = 0
KAM1 231431Z 26005KT M08/M11 A3016 RMK A01 T10771107  RH  079%=      5-min Rain = 0
KAM1 231432Z 27005KT M08/M11 A3016 RMK A01 T10751106  RH  079%=      5-min Rain = 0
KAM1 231433Z 27004KT M07/M11 A3016 RMK A01 T10741105  RH  078%=      5-min Rain = 0
KAM1 231434Z 27004KT M07/M11 A3016 RMK A01 T10731105  RH  078%=      5-min Rain = 0
KAM1 231435Z 27003KT M07/M10 A3016 RMK A01 T10721104  RH  078%=      5-min Rain = 0
KAM1 231436Z 27003KT M07/M10 A3016 RMK A01 T10711103  RH  078%=      5-min Rain = 0
KAM1 231437Z 27003KT M07/M10 A3016 RMK A01 T10701103  RH  077%=      5-min Rain = 0
KAM1 231438Z 28004KT M07/M10 A3016 RMK A01 T10691104  RH  076%=      5-min Rain = 0
KAM1 231439Z 27003KT M07/M10 A3016 RMK A01 T10681103  RH  076%=      5-min Rain = 0
KAM1 231440Z 27003KT M07/M10 A3016 RMK A01 T10671101  RH  077%=      5-min Rain = 0
KAM1 231441Z 27004KT M07/M10 A3016 RMK A01 T10661100  RH  077%=      5-min Rain = 0
KAM1 231442Z 27004KT M06/M10 A3016 RMK A01 T10641099  RH  076%=      5-min Rain = 0
KAM1 231443Z 27004KT M06/M10 A3016 RMK A01 T10631100  RH  076%=      5-min Rain = 0
KAM1 231444Z 26004KT M06/M10 A3016 RMK A01 T10631100  RH  075%=      5-min Rain = 0
KAM1 231445Z 26004KT M06/M10 A3016 RMK A01 T10621100  RH  074%=      5-min Rain = 0
KAM1 231446Z 26005KT M06/M10 A3016 RMK A01 T10611099  RH  074%=      5-min Rain = 0
KAM1 231447Z 27005KT M06/M10 A3016 RMK A01 T10601099  RH  074%=      5-min Rain = 0
KAM1 231448Z 27004KT M06/M10 A3016 RMK A01 T10601099  RH  074%=      5-min Rain = 0
KAM1 231449Z 26004KT M06/M10 A3016 RMK A01 T10581098  RH  074%=      5-min Rain = 0
KAM1 231450Z 26005KT M06/M10 A3016 RMK A01 T10571096  RH  073%=      5-min Rain = 0
KAM1 231451Z 26004KT M06/M10 A3016 RMK A01 T10551095  RH  074%=      5-min Rain = 0
KAM1 231452Z 25005KT M05/M09 A3016 RMK A01 T10541094  RH  073%=      5-min Rain = 0
KAM1 231453Z 26004KT M05/M09 A3016 RMK A01 T10521093  RH  073%=      5-min Rain = 0
KAM1 231454Z 26004KT M05/M09 A3016 RMK A01 T10511092  RH  073%=      5-min Rain = 0
KAM1 231455Z 26004KT M05/M09 A3016 RMK A01 T10491092  RH  072%=      5-min Rain = 0
KAM1 231456Z 26004KT M05/M09 A3016 RMK A01 T10471091  RH  071%=      5-min Rain = 0
KAM1 231457Z 27004KT M05/M09 A3016 RMK A01 T10451089  RH  071%=      5-min Rain = 0
KAM1 231458Z 27004KT M04/M09 A3016 RMK A01 T10421088  RH  070%=      5-min Rain = 0
KAM1 231459Z 27004KT M04/M09 A3016 RMK A01 T10391088  RH  069%=      5-min Rain = 0
KAM1 231500Z 27004KT M04/M09 A3016 RMK A01 T10371087  RH  068%=      5-min Rain = 0
KAM1 231501Z 27006KT M03/M09 A3016 RMK A01 T10341086  RH  068%=      5-min Rain = 0
KAM1 231502Z 27006KT M03/M09 A3016 RMK A01 T10321087  RH  066%=      5-min Rain = 0
KAM1 231503Z 26006KT M03/M09 A3016 RMK A01 T10311087  RH  065%=      5-min Rain = 0
KAM1 231504Z 26006KT M03/M09 A3016 RMK A01 T10301085  RH  066%=      5-min Rain = 0
KAM1 231505Z 25006KT M03/M09 A3016 RMK A01 T10301087  RH  065%=      5-min Rain = 0
KAM1 231506Z 26007KT M03/M09 A3016 RMK A01 T10301087  RH  065%=      5-min Rain = 0
KAM1 231507Z 26007KT M03/M09 A3016 RMK A01 T10301087  RH  065%=      5-min Rain = 0
KAM1 231508Z 26007KT M03/M09 A3016 RMK A01 T10311090  RH  064%=      5-min Rain = 0
KAM1 231509Z 26007KT M03/M09 A3016 RMK A01 T10311091  RH  063%=      5-min Rain = 0
KAM1 231510Z 26007KT M03/M09 A3016 RMK A01 T10301090  RH  063%=      5-min Rain = 0
KAM1 231511Z 27007KT M03/M09 A3016 RMK A01 T10301090  RH  063%=      5-min Rain = 0
KAM1 231512Z 26007KT M03/M09 A3016 RMK A01 T10291092  RH  062%=      5-min Rain = 0
KAM1 231513Z 26007KT M03/M09 A3016 RMK A01 T10281092  RH  061%=      5-min Rain = 0
KAM1 231514Z 27007KT M03/M09 A3016 RMK A01 T10261090  RH  062%=      5-min Rain = 0
KAM1 231515Z 27008KT M03/M09 A3016 RMK A01 T10251090  RH  061%=      5-min Rain = 0
KAM1 231516Z 27008KT M02/M09 A3017 RMK A01 T10241090  RH  061%=      5-min Rain = 0
KAM1 231517Z 27008KT M02/M09 A3017 RMK A01 T10231091  RH  060%=      5-min Rain = 0
KAM1 231518Z 27007KT M02/M09 A3017 RMK A01 T10221091  RH  059%=      5-min Rain = 0
KAM1 231519Z 27007KT M02/M09 A3017 RMK A01 T10201091  RH  059%=      5-min Rain = 0
KAM1 231520Z 27006KT M02/M09 A3016 RMK A01 T10201091  RH  058%=      5-min Rain = 0
KAM1 231521Z 27007KT M02/M09 A3016 RMK A01 T10191090  RH  059%=      5-min Rain = 0
KAM1 231522Z 27006KT M02/M09 A3016 RMK A01 T10171090  RH  058%=      5-min Rain = 0
KAM1 231523Z 27007KT M02/M09 A3016 RMK A01 T10151091  RH  056%=      5-min Rain = 0
KAM1 231524Z 28007KT M02/M10 A3016 RMK A01 T10151095  RH  054%=      5-min Rain = 0
KAM1 231525Z 28008KT M01/M10 A3016 RMK A01 T10141097  RH  053%=      5-min Rain = 0
KAM1 231526Z 28007KT M01/M10 A3016 RMK A01 T10141099  RH  052%=      5-min Rain = 0
KAM1 231527Z 28006KT M01/M10 A3017 RMK A01 T10131096  RH  053%=      5-min Rain = 0
KAM1 231528Z 28007KT M01/M10 A3017 RMK A01 T10121096  RH  053%=      5-min Rain = 0
KAM1 231529Z 28005KT M01/M10 A3017 RMK A01 T10121100  RH  051%=      5-min Rain = 0
KAM1 231530Z 28004KT M01/M10 A3017 RMK A01 T10121098  RH  052%=      5-min Rain = 0
KAM1 231531Z 27006KT M01/M10 A3017 RMK A01 T10111097  RH  052%=      5-min Rain = 0
KAM1 231532Z 28005KT M01/M10 A3017 RMK A01 T10101099  RH  051%=      5-min Rain = 0
KAM1 231533Z 28007KT M01/M10 A3017 RMK A01 T10101100  RH  051%=      5-min Rain = 0
KAM1 231534Z 27005KT M01/M10 A3017 RMK A01 T10101101  RH  050%=      5-min Rain = 0
KAM1 231535Z 26005KT M01/M10 A3017 RMK A01 T10091099  RH  051%=      5-min Rain = 0
KAM1 231536Z 27004KT M01/M09 A3017 RMK A01 T10061092  RH  052%=      5-min Rain = 0
KAM1 231537Z 26004KT M00/M09 A3017 RMK A01 T10041093  RH  051%=      5-min Rain = 0
KAM1 231538Z 25006KT M00/M09 A3017 RMK A01 T10031092  RH  051%=      5-min Rain = 0
KAM1 231539Z 28007KT M00/M09 A3017 RMK A01 T10021093  RH  050%=      5-min Rain = 0
KAM1 231540Z 26008KT M00/M10 A3016 RMK A01 T10031096  RH  049%=      5-min Rain = 0
KAM1 231541Z 26008KT M00/M10 A3016 RMK A01 T10021098  RH  049%=      5-min Rain = 0
KAM1 231542Z 27008KT M00/M10 A3017 RMK A01 T10021098  RH  048%=      5-min Rain = 0
KAM1 231543Z 27009KT M00/M10 A3017 RMK A01 T10011099  RH  048%=      5-min Rain = 0
KAM1 231544Z 27008KT M00/M10 A3017 RMK A01 T10021101  RH  047%=      5-min Rain = 0
KAM1 231545Z 27008KT M00/M10 A3017 RMK A01 T10021102  RH  047%=      5-min Rain = 0
KAM1 231546Z 27008KT M00/M10 A3016 RMK A01 T10031103  RH  047%=      5-min Rain = 0
KAM1 231547Z 27007KT M00/M10 A3016 RMK A01 T10021103  RH  047%=      5-min Rain = 0
KAM1 231548Z 28006KT M00/M10 A3016 RMK A01 T10011100  RH  047%=      5-min Rain = 0
KAM1 231549Z 28006KT 00/M10 A3016 RMK A01 T00011098  RH  048%=      5-min Rain = 0
KAM1 231550Z 29008KT 00/M10 A3017 RMK A01 T00021098  RH  047%=      5-min Rain = 0
KAM1 231551Z 29009KT 00/M10 A3017 RMK A01 T00021101  RH  046%=      5-min Rain = 0
KAM1 231552Z 28008KT 00/M10 A3017 RMK A01 T00021101  RH  046%=      5-min Rain = 0
KAM1 231553Z 27008KT 00/M10 A3016 RMK A01 T00021102  RH  046%=      5-min Rain = 0
KAM1 231554Z 27007KT 00/M10 A3016 RMK A01 T00031101  RH  045%=      5-min Rain = 0
KAM1 231555Z 27008KT 01/M10 A3016 RMK A01 T00051101  RH  045%=      5-min Rain = 0
KAM1 231556Z 27009KT 01/M10 A3016 RMK A01 T00061101  RH  045%=      5-min Rain = 0
KAM1 231557Z 27008KT 01/M10 A3016 RMK A01 T00061103  RH  044%=      5-min Rain = 0
KAM1 231558Z 28007KT 01/M10 A3016 RMK A01 T00061104  RH  044%=      5-min Rain = 0
KAM1 231559Z 27007KT 01/M10 A3016 RMK A01 T00061102  RH  044%=      5-min Rain = 0
KAM1 231600Z 27009KT 01/M10 A3016 RMK A01 T00081102  RH  044%=      5-min Rain = 0
KAM1 231601Z 28010KT 01/M10 A3016 RMK A01 T00081104  RH  043%=      5-min Rain = 0
KAM1 231602Z 27010KT 01/M11 A3017 RMK A01 T00081107  RH  042%=      5-min Rain = 0
KAM1 231603Z 28010KT 01/M11 A3017 RMK A01 T00081108  RH  042%=      5-min Rain = 0
KAM1 231604Z 28010KT 01/M11 A3016 RMK A01 T00081108  RH  042%=      5-min Rain = 0
KAM1 231605Z 28009KT 01/M11 A3016 RMK A01 T00081107  RH  042%=      5-min Rain = 0
KAM1 231606Z 28009KT 01/M11 A3016 RMK A01 T00091107  RH  041%=      5-min Rain = 0
KAM1 231607Z 28009KT 01/M11 A3016 RMK A01 T00101109  RH  041%=      5-min Rain = 0
KAM1 231608Z 27007KT 01/M11 A3016 RMK A01 T00101110  RH  041%=      5-min Rain = 0
KAM1 231609Z 28007KT 01/M11 A3016 RMK A01 T00101108  RH  041%=      5-min Rain = 0
KAM1 231610Z 27006KT 01/M11 A3016 RMK A01 T00121105  RH  041%=      5-min Rain = 0
KAM1 231611Z 27006KT 01/M10 A3017 RMK A01 T00141103  RH  041%=      5-min Rain = 0
KAM1 231612Z 28007KT 02/M10 A3017 RMK A01 T00161102  RH  041%=      5-min Rain = 0
KAM1 231613Z 27008KT 02/M10 A3017 RMK A01 T00181101  RH  041%=      5-min Rain = 0
KAM1 231614Z 27007KT 02/M10 A3017 RMK A01 T00191104  RH  040%=      5-min Rain = 0
KAM1 231615Z 27009KT 02/M11 A3017 RMK A01 T00191106  RH  039%=      5-min Rain = 0
KAM1 231616Z 26009KT 02/M11 A3017 RMK A01 T00191107  RH  039%=      5-min Rain = 0
KAM1 231617Z 26010KT 02/M11 A3017 RMK A01 T00181108  RH  039%=      5-min Rain = 0
KAM1 231618Z 27010KT 02/M11 A3017 RMK A01 T00181109  RH  038%=      5-min Rain = 0
KAM1 231619Z 26009KT 02/M11 A3017 RMK A01 T00171114  RH  037%=      5-min Rain = 0
KAM1 231620Z 27009KT 02/M11 A3017 RMK A01 T00171113  RH  037%=      5-min Rain = 0
KAM1 231621Z 27010KT 02/M11 A3017 RMK A01 T00181109  RH  038%=      5-min Rain = 0
KAM1 231622Z 25009KT 02/M11 A3017 RMK A01 T00191107  RH  039%=      5-min Rain = 0
KAM1 231623Z 26009KT 02/M11 A3017 RMK A01 T00201105  RH  039%=      5-min Rain = 0
KAM1 231624Z 26009KT 02/M10 A3016 RMK A01 T00211103  RH  039%=      5-min Rain = 0
KAM1 231625Z 26010KT 02/M10 A3016 RMK A01 T00211104  RH  039%=      5-min Rain = 0
KAM1 231626Z 26009KT 02/M11 A3017 RMK A01 T00211106  RH  038%=      5-min Rain = 0
KAM1 231627Z 26010KT 02/M10 A3017 RMK A01 T00221103  RH  039%=      5-min Rain = 0
KAM1 231628Z 26011KT 02/M11 A3017 RMK A01 T00241105  RH  038%=      5-min Rain = 0
KAM1 231629Z 27009KT 02/M11 A3017 RMK A01 T00231109  RH  037%=      5-min Rain = 0
KAM1 231630Z 26011KT 02/M11 A3017 RMK A01 T00221110  RH  037%=      5-min Rain = 0
KAM1 231631Z 26010KT 02/M11 A3016 RMK A01 T00221110  RH  037%=      5-min Rain = 0
KAM1 231632Z 26009KT 02/M11 A3017 RMK A01 T00211110  RH  037%=      5-min Rain = 0
KAM1 231633Z 27010KT 02/M11 A3017 RMK A01 T00221107  RH  038%=      5-min Rain = 0
KAM1 231634Z 27010KT 02/M11 A3017 RMK A01 T00231108  RH  037%=      5-min Rain = 0
KAM1 231635Z 27008KT 02/M11 A3017 RMK A01 T00231111  RH  036%=      5-min Rain = 0
KAM1 231636Z 27008KT 03/M11 A3017 RMK A01 T00251106  RH  037%=      5-min Rain = 0
KAM1 231637Z 27009KT 03/M11 A3017 RMK A01 T00271105  RH  037%=      5-min Rain = 0
KAM1 231638Z 26010KT 03/M11 A3017 RMK A01 T00281109  RH  036%=      5-min Rain = 0
KAM1 231639Z 25010KT 03/M11 A3017 RMK A01 T00271113  RH  035%=      5-min Rain = 0
KAM1 231640Z 26011KT 03/M11 A3017 RMK A01 T00281110  RH  035%=      5-min Rain = 0
KAM1 231641Z 26009KT 03/M11 A3017 RMK A01 T00291113  RH  034%=      5-min Rain = 0
KAM1 231642Z 27010KT 03/M12 A3017 RMK A01 T00291116  RH  034%=      5-min Rain = 0
KAM1 231643Z 27012KT 03/M12 A3017 RMK A01 T00281119  RH  033%=      5-min Rain = 0
KAM1 231644Z 26010KT 03/M12 A3017 RMK A01 T00261122  RH  032%=      5-min Rain = 0
KAM1 231645Z 27009KT 03/M12 A3017 RMK A01 T00261122  RH  033%=      5-min Rain = 0
KAM1 231646Z 27010KT 03/M12 A3017 RMK A01 T00291120  RH  033%=      5-min Rain = 0
KAM1 231647Z 27009KT 03/M12 A3017 RMK A01 T00311117  RH  033%=      5-min Rain = 0
KAM1 231648Z 28010KT 03/M12 A3017 RMK A01 T00331117  RH  033%=      5-min Rain = 0
KAM1 231649Z 28009KT 03/M12 A3017 RMK A01 T00321120  RH  032%=      5-min Rain = 0
KAM1 231650Z 27009KT 03/M12 A3017 RMK A01 T00321120  RH  032%=      5-min Rain = 0
KAM1 231651Z 26010KT 03/M12 A3016 RMK A01 T00331121  RH  031%=      5-min Rain = 0
KAM1 231652Z 25010KT 03/M12 A3016 RMK A01 T00331124  RH  031%=      5-min Rain = 0
KAM1 231653Z 26012KT 03/M13 A3016 RMK A01 T00331125  RH  030%=      5-min Rain = 0
KAM1 231654Z 26011KT 03/M13 A3016 RMK A01 T00311126  RH  030%=      5-min Rain = 0
KAM1 231655Z 26011KT 03/M13 A3016 RMK A01 T00311130  RH  030%=      5-min Rain = 0
KAM1 231656Z 25010KT 03/M13 A3016 RMK A01 T00301131  RH  030%=      5-min Rain = 0
KAM1 231657Z 26010KT 03/M13 A3016 RMK A01 T00311128  RH  030%=      5-min Rain = 0
KAM1 231658Z 26010KT 03/M13 A3016 RMK A01 T00341125  RH  030%=      5-min Rain = 0
KAM1 231659Z 26009KT 04/M12 A3016 RMK A01 T00361124  RH  030%=      5-min Rain = 0
KAM1 231700Z 26011KT 04/M12 A3016 RMK A01 T00351121  RH  031%=      5-min Rain = 0
KAM1 231701Z 26012KT 04/M12 A3016 RMK A01 T00361121  RH  031%=      5-min Rain = 0
KAM1 231702Z 26010KT 04/M12 A3016 RMK A01 T00361120  RH  031%=      5-min Rain = 0
KAM1 231703Z 25011KT 04/M12 A3016 RMK A01 T00371119  RH  031%=      5-min Rain = 0
KAM1 231704Z 26012KT 04/M12 A3016 RMK A01 T00371122  RH  030%=      5-min Rain = 0
KAM1 231705Z 27011KT 04/M12 A3016 RMK A01 T00381124  RH  030%=      5-min Rain = 0
KAM1 231706Z 27012KT 04/M13 A3016 RMK A01 T00381126  RH  029%=      5-min Rain = 0
KAM1 231707Z 26010KT 04/M13 A3016 RMK A01 T00371127  RH  029%=      5-min Rain = 0
KAM1 231708Z 26010KT 04/M13 A3016 RMK A01 T00361127  RH  029%=      5-min Rain = 0
KAM1 231709Z 26012KT 04/M13 A3016 RMK A01 T00371127  RH  029%=      5-min Rain = 0
KAM1 231710Z 26010KT 04/M13 A3016 RMK A01 T00381127  RH  029%=      5-min Rain = 0
KAM1 231711Z 27012KT 04/M12 A3016 RMK A01 T00401123  RH  029%=      5-min Rain = 0
KAM1 231712Z 27010KT 04/M12 A3016 RMK A01 T00401124  RH  029%=      5-min Rain = 0
KAM1 231713Z 26010KT 04/M12 A3015 RMK A01 T00401121  RH  030%=      5-min Rain = 0
KAM1 231714Z 26012KT 04/M12 A3015 RMK A01 T00401121  RH  030%=      5-min Rain = 0
KAM1 231715Z 26013KT 04/M12 A3015 RMK A01 T00411120  RH  030%=      5-min Rain = 0
KAM1 231716Z 25012KT 04/M12 A3015 RMK A01 T00411121  RH  030%=      5-min Rain = 0
KAM1 231717Z 25012KT 04/M12 A3015 RMK A01 T00411121  RH  030%=      5-min Rain = 0
KAM1 231718Z 24012KT 04/M12 A3015 RMK A01 T00431118  RH  030%=      5-min Rain = 0
KAM1 231719Z 25011KT 04/M12 A3015 RMK A01 T00431119  RH  030%=      5-min Rain = 0
KAM1 231720Z 26012KT 04/M12 A3015 RMK A01 T00431119  RH  030%=      5-min Rain = 0
KAM1 231721Z 28012KT 04/M12 A3016 RMK A01 T00421121  RH  029%=      5-min Rain = 0
KAM1 231722Z 27013KT 04/M12 A3015 RMK A01 T00411122  RH  030%=      5-min Rain = 0
KAM1 231723Z 27012KT 04/M12 A3015 RMK A01 T00421118  RH  030%=      5-min Rain = 0
KAM1 231724Z 26009KT 04/M12 A3015 RMK A01 T00441116  RH  030%=      5-min Rain = 0
KAM1 231725Z 26011KT 05/M12 A3015 RMK A01 T00461116  RH  030%=      5-min Rain = 0
KAM1 231726Z 25014KT 05/M12 A3015 RMK A01 T00471116  RH  029%=      5-min Rain = 0
KAM1 231727Z 25011KT 05/M12 A3015 RMK A01 T00461118  RH  029%=      5-min Rain = 0
KAM1 231728Z 26011KT 05/M12 A3015 RMK A01 T00471117  RH  029%=      5-min Rain = 0
KAM1 231729Z 27012KT 05/M12 A3015 RMK A01 T00461118  RH  029%=      5-min Rain = 0
KAM1 231730Z 27012KT 05/M12 A3015 RMK A01 T00461117  RH  030%=      5-min Rain = 0
KAM1 231731Z 27013KT 05/M12 A3015 RMK A01 T00471117  RH  029%=      5-min Rain = 0
KAM1 231732Z 26014KT 05/M12 A3015 RMK A01 T00471116  RH  029%=      5-min Rain = 0
KAM1 231733Z 26014KT 05/M12 A3015 RMK A01 T00481116  RH  029%=      5-min Rain = 0
KAM1 231734Z 27011KT 05/M12 A3015 RMK A01 T00481117  RH  029%=      5-min Rain = 0
KAM1 231735Z 26011KT 05/M12 A3015 RMK A01 T00481116  RH  029%=      5-min Rain = 0
KAM1 231736Z 25014KT 05/M11 A3015 RMK A01 T00501114  RH  029%=      5-min Rain = 0
KAM1 231737Z 26009G14KT 05/M11 A3015 RMK A01 T00521113  RH  029%=      5-min Rain = 0
KAM1 231738Z 25011KT 05/M11 A3015 RMK A01 T00511114  RH  029%=      5-min Rain = 0
KAM1 231739Z 26016KT 05/M11 A3015 RMK A01 T00511113  RH  029%=      5-min Rain = 0
KAM1 231740Z 26014KT 05/M11 A3015 RMK A01 T00521113  RH  029%=      5-min Rain = 0
KAM1 231741Z 26010KT 05/M11 A3015 RMK A01 T00511113  RH  029%=      5-min Rain = 0
KAM1 231742Z 26015KT 05/M11 A3015 RMK A01 T00531110  RH  030%=      5-min Rain = 0
KAM1 231743Z 25015KT 05/M11 A3015 RMK A01 T00531112  RH  029%=      5-min Rain = 0
KAM1 231744Z 25015KT 05/M12 A3015 RMK A01 T00501115  RH  029%=      5-min Rain = 0
KAM1 231745Z 28012KT 05/M11 A3015 RMK A01 T00501111  RH  030%=      5-min Rain = 0
KAM1 231746Z 27015KT 05/M11 A3015 RMK A01 T00521109  RH  030%=      5-min Rain = 0
KAM1 231747Z 26014KT 05/M11 A3015 RMK A01 T00521110  RH  030%=      5-min Rain = 0
KAM1 231748Z 25013KT 05/M11 A3015 RMK A01 T00501112  RH  030%=      5-min Rain = 0
KAM1 231749Z 27013G18KT 05/M11 A3015 RMK A01 T00491113  RH  030%=      5-min Rain = 0
KAM1 231750Z 27010KT 05/M11 A3015 RMK A01 T00491114  RH  030%=      5-min Rain = 0
KAM1 231751Z 28010KT 05/M11 A3015 RMK A01 T00481113  RH  030%=      5-min Rain = 0
KAM1 231752Z 28009KT 05/M11 A3015 RMK A01 T00501111  RH  030%=      5-min Rain = 0
KAM1 231753Z 28012G17KT 05/M11 A3014 RMK A01 T00511111  RH  030%=      5-min Rain = 0
KAM1 231754Z 26010KT 05/M11 A3014 RMK A01 T00521108  RH  030%=      5-min Rain = 0
KAM1 231755Z 26010KT 06/M10 A3014 RMK A01 T00571104  RH  030%=      5-min Rain = 0
KAM1 231756Z 25012KT 06/M11 A3014 RMK A01 T00591106  RH  030%=      5-min Rain = 0
KAM1 231757Z 27010KT 06/M11 A3014 RMK A01 T00581108  RH  029%=      5-min Rain = 0
KAM1 231758Z 28010KT 06/M11 A3014 RMK A01 T00581107  RH  029%=      5-min Rain = 0
KAM1 231759Z 28014KT 06/M11 A3014 RMK A01 T00581106  RH  030%=      5-min Rain = 0
KAM1 231800Z 28014KT 06/M11 A3014 RMK A01 T00571107  RH  029%=      5-min Rain = 0
KAM1 231801Z 26011KT 05/M11 A3014 RMK A01 T00541111  RH  029%=      5-min Rain = 0
KAM1 231802Z 25011KT 05/M11 A3014 RMK A01 T00531110  RH  030%=      5-min Rain = 0
KAM1 231803Z 26011KT 05/M11 A3014 RMK A01 T00541109  RH  030%=      5-min Rain = 0
KAM1 231804Z 27014KT 06/M10 A3014 RMK A01 T00581104  RH  030%=      5-min Rain = 0
KAM1 231805Z 27013KT 06/M11 A3014 RMK A01 T00581105  RH  030%=      5-min Rain = 0
KAM1 231806Z 28011KT 06/M11 A3014 RMK A01 T00571106  RH  030%=      5-min Rain = 0
KAM1 231807Z 28010G16KT 06/M11 A3014 RMK A01 T00551107  RH  030%=      5-min Rain = 0
KAM1 231808Z 26016KT 06/M10 A3014 RMK A01 T00571103  RH  031%=      5-min Rain = 0
KAM1 231809Z 28011KT 06/M10 A3014 RMK A01 T00571104  RH  030%=      5-min Rain = 0
KAM1 231810Z 27009KT 06/M10 A3014 RMK A01 T00571102  RH  031%=      5-min Rain = 0
KAM1 231811Z 26010KT 06/M10 A3014 RMK A01 T00611099  RH  031%=      5-min Rain = 0
KAM1 231812Z 27014KT 06/M10 A3013 RMK A01 T00621098  RH  031%=      5-min Rain = 0
KAM1 231813Z 28014KT 06/M10 A3013 RMK A01 T00631099  RH  030%=      5-min Rain = 0
KAM1 231814Z 27013KT 06/M10 A3013 RMK A01 T00611101  RH  030%=      5-min Rain = 0
KAM1 231815Z 28014KT 06/M10 A3013 RMK A01 T00601099  RH  031%=      5-min Rain = 0
KAM1 231816Z 28011KT 06/M10 A3013 RMK A01 T00601099  RH  031%=      5-min Rain = 0
KAM1 231817Z 27012KT 06/M10 A3013 RMK A01 T00591099  RH  031%=      5-min Rain = 0
KAM1 231818Z 28013KT 06/M10 A3013 RMK A01 T00591098  RH  031%=      5-min Rain = 0
KAM1 231819Z 27010KT 06/M10 A3013 RMK A01 T00591099  RH  031%=      5-min Rain = 0
KAM1 231820Z 27010KT 06/M09 A3013 RMK A01 T00621094  RH  032%=      5-min Rain = 0
KAM1 231821Z 26012KT 06/M09 A3013 RMK A01 T00641094  RH  031%=      5-min Rain = 0
KAM1 231822Z 26012KT 06/M10 A3013 RMK A01 T00621098  RH  031%=      5-min Rain = 0
KAM1 231823Z 27011KT 06/M10 A3013 RMK A01 T00601099  RH  031%=      5-min Rain = 0
KAM1 231824Z 27009KT 06/M10 A3013 RMK A01 T00591099  RH  031%=      5-min Rain = 0
KAM1 231825Z 27012KT 06/M10 A3013 RMK A01 T00591098  RH  031%=      5-min Rain = 0
KAM1 231826Z 27012KT 06/M10 A3013 RMK A01 T00591099  RH  031%=      5-min Rain = 0
KAM1 231827Z 28011KT 06/M10 A3012 RMK A01 T00571099  RH  032%=      5-min Rain = 0
KAM1 231828Z 27012KT 06/M10 A3012 RMK A01 T00601095  RH  032%=      5-min Rain = 0
KAM1 231829Z 28010KT 06/M10 A3012 RMK A01 T00601097  RH  031%=      5-min Rain = 0
KAM1 231830Z 27010KT 06/M10 A3012 RMK A01 T00581097  RH  032%=      5-min Rain = 0
KAM1 231831Z 25008KT 06/M10 A3012 RMK A01 T00591096  RH  032%=      5-min Rain = 0
KAM1 231832Z 27011KT 06/M09 A3012 RMK A01 T00621093  RH  032%=      5-min Rain = 0
KAM1 231833Z 28011KT 07/M09 A3012 RMK A01 T00651092  RH  032%=      5-min Rain = 0
KAM1 231834Z 25011KT 07/M09 A3012 RMK A01 T00661092  RH  031%=      5-min Rain = 0
KAM1 231835Z 25012KT 07/M09 A3012 RMK A01 T00681092  RH  031%=      5-min Rain = 0
KAM1 231836Z 26011G17KT 07/M10 A3012 RMK A01 T00661096  RH  030%=      5-min Rain = 0
KAM1 231837Z 26013KT 06/M10 A3012 RMK A01 T00631097  RH  031%=      5-min Rain = 0
KAM1 231838Z 26010KT 06/M10 A3012 RMK A01 T00631097  RH  031%=      5-min Rain = 0
KAM1 231839Z 27011KT 06/M10 A3011 RMK A01 T00631096  RH  031%=      5-min Rain = 0
KAM1 231840Z 26008KT 06/M10 A3011 RMK A01 T00591100  RH  031%=      5-min Rain = 0
KAM1 231841Z 26012KT 06/M09 A3011 RMK A01 T00601094  RH  032%=      5-min Rain = 0
KAM1 231842Z 26010KT 07/M09 A3011 RMK A01 T00651094  RH  031%=      5-min Rain = 0
KAM1 231843Z 26010KT 06/M10 A3011 RMK A01 T00641096  RH  031%=      5-min Rain = 0
KAM1 231844Z 27011KT 06/M10 A3011 RMK A01 T00631098  RH  031%=      5-min Rain = 0
KAM1 231845Z 26009KT 06/M10 A3011 RMK A01 T00621098  RH  031%=      5-min Rain = 0
KAM1 231846Z 25011KT 06/M10 A3011 RMK A01 T00641095  RH  031%=      5-min Rain = 0
KAM1 231847Z 26012G17KT 06/M10 A3011 RMK A01 T00621097  RH  031%=      5-min Rain = 0
KAM1 231848Z 26013KT 06/M10 A3011 RMK A01 T00641095  RH  031%=      5-min Rain = 0
KAM1 231849Z 26013KT 07/M10 A3011 RMK A01 T00651096  RH  031%=      5-min Rain = 0
KAM1 231850Z 27012KT 06/M10 A301 RMK A01 T00641098  RH  030%=      5-min Rain = 0
KAM1 231851Z 26009KT 06/M10 A301 RMK A01 T00611099  RH  031%=      5-min Rain = 0
KAM1 231852Z 27011KT 06/M10 A301 RMK A01 T00611098  RH  031%=      5-min Rain = 0
KAM1 231853Z 26009KT 06/M10 A301 RMK A01 T00641096  RH  031%=      5-min Rain = 0
KAM1 231854Z 25011KT 07/M09 A301 RMK A01 T00661094  RH  031%=      5-min Rain = 0
KAM1 231855Z 25011KT 07/M10 A301 RMK A01 T00681095  RH  030%=      5-min Rain = 0
KAM1 231856Z 26012KT 07/M10 A301 RMK A01 T00671095  RH  030%=      5-min Rain = 0
KAM1 231857Z 26012KT 07/M10 A301 RMK A01 T00661097  RH  030%=      5-min Rain = 0
KAM1 231858Z 27010KT 07/M10 A301 RMK A01 T00661096  RH  030%=      5-min Rain = 0
KAM1 231859Z 27010KT 07/M09 A3009 RMK A01 T00691094  RH  030%=      5-min Rain = 0
KAM1 231900Z 28012KT 07/M09 A3009 RMK A01 T00721093  RH  030%=      5-min Rain = 0
KAM1 231901Z 28013KT 07/M09 A3009 RMK A01 T00741094  RH  029%=      5-min Rain = 0
KAM1 231902Z 28011KT 07/M10 A3009 RMK A01 T00721097  RH  029%=      5-min Rain = 0
KAM1 231903Z 28011KT 07/M10 A3009 RMK A01 T00701099  RH  029%=      5-min Rain = 0
KAM1 231904Z 28012KT 07/M10 A3009 RMK A01 T00691101  RH  029%=      5-min Rain = 0
KAM1 231905Z 28012KT 07/M10 A3009 RMK A01 T00681100  RH  029%=      5-min Rain = 0
KAM1 231906Z 28012KT 07/M10 A3009 RMK A01 T00691099  RH  029%=      5-min Rain = 0
KAM1 231907Z 27007KT 07/M10 A3009 RMK A01 T00691100  RH  029%=      5-min Rain = 0
KAM1 231908Z 26010KT 07/M10 A3009 RMK A01 T00701098  RH  029%=      5-min Rain = 0
KAM1 231909Z 25008KT 07/M10 A3009 RMK A01 T00701097  RH  029%=      5-min Rain = 0
KAM1 231910Z 28009KT 07/M10 A3008 RMK A01 T00701095  RH  030%=      5-min Rain = 0
KAM1 231911Z 29013KT 08/M09 A3008 RMK A01 T00751093  RH  029%=      5-min Rain = 0
KAM1 231912Z 29013KT 08/M10 A3008 RMK A01 T00761098  RH  028%=      5-min Rain = 0
KAM1 231913Z 28012KT 07/M10 A3008 RMK A01 T00721103  RH  028%=      5-min Rain = 0
KAM1 231914Z 29012KT 07/M10 A3008 RMK A01 T00701104  RH  028%=      5-min Rain = 0
KAM1 231915Z 29009KT 07/M11 A3008 RMK A01 T00701105  RH  028%=      5-min Rain = 0
KAM1 231916Z 28011KT 07/M10 A3008 RMK A01 T00731102  RH  028%=      5-min Rain = 0
KAM1 231917Z 27011KT 07/M10 A3008 RMK A01 T00741103  RH  027%=      5-min Rain = 0
KAM1 231918Z 27009KT 07/M11 A3008 RMK A01 T00731107  RH  026%=      5-min Rain = 0
KAM1 231919Z 27009KT 07/M11 A3008 RMK A01 T00711111  RH  026%=      5-min Rain = 0
KAM1 231920Z 26006KT 07/M11 A3008 RMK A01 T00711107  RH  027%=      5-min Rain = 0
KAM1 231921Z 28006KT 07/M11 A3008 RMK A01 T00701106  RH  027%=      5-min Rain = 0
KAM1 231922Z 28010KT 07/M10 A3008 RMK A01 T00721100  RH  028%=      5-min Rain = 0
KAM1 231923Z 27010KT 07/M10 A3008 RMK A01 T00731101  RH  028%=      5-min Rain = 0
KAM1 231924Z 26008KT 07/M10 A3008 RMK A01 T00731104  RH  027%=      5-min Rain = 0
KAM1 231925Z 27009KT 07/M11 A3007 RMK A01 T00731106  RH  027%=      5-min Rain = 0
KAM1 231926Z 26007KT 07/M11 A3007 RMK A01 T00731106  RH  027%=      5-min Rain = 0
KAM1 231927Z 26010KT 07/M11 A3007 RMK A01 T00701109  RH  027%=      5-min Rain = 0
KAM1 231928Z 24009KT 07/M11 A3007 RMK A01 T00711106  RH  027%=      5-min Rain = 0
KAM1 231929Z 24010KT 07/M11 A3007 RMK A01 T00721108  RH  026%=      5-min Rain = 0
KAM1 231930Z 26006KT 07/M10 A3007 RMK A01 T00731104  RH  027%=      5-min Rain = 0
KAM1 231931Z 26007KT 07/M10 A3007 RMK A01 T00741102  RH  027%=      5-min Rain = 0
KAM1 231932Z 27009KT 08/M10 A3007 RMK A01 T00781098  RH  028%=      5-min Rain = 0
KAM1 231933Z 28012KT 08/M10 A3007 RMK A01 T00791100  RH  027%=      5-min Rain = 0
KAM1 231934Z 28011KT 08/M10 A3007 RMK A01 T00791104  RH  026%=      5-min Rain = 0
KAM1 231935Z 27010KT 08/M11 A3007 RMK A01 T00781106  RH  026%=      5-min Rain = 0
KAM1 231936Z 26009KT 08/M11 A3007 RMK A01 T00771107  RH  026%=      5-min Rain = 0
KAM1 231937Z 27007KT 08/M11 A3006 RMK A01 T00751108  RH  026%=      5-min Rain = 0
KAM1 231938Z 28006KT 07/M11 A3006 RMK A01 T00741107  RH  026%=      5-min Rain = 0
KAM1 231939Z 28006KT 08/M10 A3006 RMK A01 T00761103  RH  027%=      5-min Rain = 0
KAM1 231940Z 25010G15KT 08/M10 A3006 RMK A01 T00771103  RH  027%=      5-min Rain = 0
KAM1 231941Z 26013KT 08/M10 A3006 RMK A01 T00771104  RH  026%=      5-min Rain = 0
KAM1 231942Z 25012KT 08/M11 A3006 RMK A01 T00781105  RH  026%=      5-min Rain = 0
KAM1 231943Z 25011KT 08/M11 A3006 RMK A01 T00781107  RH  026%=      5-min Rain = 0
KAM1 231944Z 23008KT 08/M11 A3006 RMK A01 T00771112  RH  025%=      5-min Rain = 0
KAM1 231945Z 27006KT 07/M11 A3006 RMK A01 T00741113  RH  025%=      5-min Rain = 0
KAM1 231946Z 26010KT 08/M11 A3006 RMK A01 T00771108  RH  026%=      5-min Rain = 0
KAM1 231947Z 28012KT 08/M11 A3005 RMK A01 T00791108  RH  025%=      5-min Rain = 0
KAM1 231948Z 27012KT 08/M11 A3005 RMK A01 T00811110  RH  025%=      5-min Rain = 0
KAM1 231949Z 27010KT 08/M11 A3005 RMK A01 T00801113  RH  024%=      5-min Rain = 0
KAM1 231950Z 28012KT 08/M11 A3005 RMK A01 T00791114  RH  024%=      5-min Rain = 0
KAM1 231951Z 29009KT 08/M11 A3005 RMK A01 T00801114  RH  024%=      5-min Rain = 0
KAM1 231952Z 25009KT 08/M12 A3005 RMK A01 T00791115  RH  024%=      5-min Rain = 0
KAM1 231953Z 25008KT 08/M12 A3005 RMK A01 T00791116  RH  024%=      5-min Rain = 0
KAM1 231954Z 25009KT 08/M11 A3005 RMK A01 T00811110  RH  024%=      5-min Rain = 0
KAM1 231955Z 26007KT 08/M11 A3005 RMK A01 T00831110  RH  024%=      5-min Rain = 0
KAM1 231956Z 26009KT 08/M11 A3005 RMK A01 T00841111  RH  024%=      5-min Rain = 0
KAM1 231957Z 27010KT 08/M11 A3005 RMK A01 T00841113  RH  023%=      5-min Rain = 0
KAM1 231958Z 27007KT 08/M12 A3005 RMK A01 T00831115  RH  023%=      5-min Rain = 0
KAM1 231959Z 27007KT 09/M11 A3005 RMK A01 T00851113  RH  023%=      5-min Rain = 0
KAM1 232000Z 27007G13KT 08/M12 A3005 RMK A01 T00831115  RH  023%=      5-min Rain = 0
KAM1 232001Z 27011KT 08/M11 A3005 RMK A01 T00841110  RH  024%=      5-min Rain = 0
KAM1 232002Z 27006KT 08/M11 A3005 RMK A01 T00841114  RH  023%=      5-min Rain = 0
KAM1 232003Z 27010KT 08/M11 A3005 RMK A01 T00811114  RH  024%=      5-min Rain = 0
KAM1 232004Z 27007KT 08/M11 A3005 RMK A01 T00831111  RH  024%=      5-min Rain = 0
KAM1 232005Z 25008KT 08/M11 A3004 RMK A01 T00821110  RH  024%=      5-min Rain = 0
KAM1 232006Z 25011KT 08/M11 A3004 RMK A01 T00841111  RH  024%=      5-min Rain = 0
KAM1 232007Z 28009KT 08/M11 A3004 RMK A01 T00841113  RH  023%=      5-min Rain = 0
KAM1 232008Z 29011KT 09/M12 A3004 RMK A01 T00861115  RH  023%=      5-min Rain = 0
KAM1 232009Z 28013KT 09/M12 A3004 RMK A01 T00851118  RH  022%=      5-min Rain = 0
KAM1 232010Z 28013KT 08/M12 A3004 RMK A01 T00831120  RH  022%=      5-min Rain = 0
KAM1 232011Z 29012KT 08/M12 A3004 RMK A01 T00831121  RH  022%=      5-min Rain = 0
KAM1 232012Z 30010KT 08/M13 A3004 RMK A01 T00821127  RH  021%=      5-min Rain = 0
KAM1 232013Z 29010KT 08/M13 A3004 RMK A01 T00821129  RH  021%=      5-min Rain = 0
KAM1 232014Z 28008KT 08/M13 A3004 RMK A01 T00831131  RH  020%=      5-min Rain = 0
KAM1 232015Z 27010KT 08/M13 A3004 RMK A01 T00811133  RH  020%=      5-min Rain = 0
KAM1 232016Z 28010KT 08/M14 A3004 RMK A01 T00811138  RH  020%=      5-min Rain = 0
KAM1 232017Z 28010KT 08/M13 A3004 RMK A01 T00821134  RH  020%=      5-min Rain = 0
KAM1 232018Z 29009KT 08/M13 A3004 RMK A01 T00821130  RH  021%=      5-min Rain = 0
KAM1 232019Z 29006KT 08/M13 A3004 RMK A01 T00801130  RH  021%=      5-min Rain = 0
KAM1 232020Z 28005KT 08/M13 A3004 RMK A01 T00781129  RH  022%=      5-min Rain = 0
KAM1 232021Z 29005KT 08/M13 A3004 RMK A01 T00781128  RH  022%=      5-min Rain = 0
KAM1 232022Z 27008KT 08/M12 A3004 RMK A01 T00791123  RH  022%=      5-min Rain = 0
KAM1 232023Z 29010KT 08/M12 A3003 RMK A01 T00841115  RH  023%=      5-min Rain = 0
KAM1 232024Z 29011KT 09/M12 A3003 RMK A01 T00881117  RH  022%=      5-min Rain = 0
KAM1 232025Z 31012KT 09/M12 A3003 RMK A01 T00881122  RH  021%=      5-min Rain = 0
KAM1 232026Z 31008KT 08/M13 A3003 RMK A01 T00841125  RH  021%=      5-min Rain = 0
KAM1 232027Z 30010G15KT 08/M13 A3003 RMK A01 T00821126  RH  022%=      5-min Rain = 0
KAM1 232028Z 27012KT 08/M12 A3003 RMK A01 T00841119  RH  022%=      5-min Rain = 0
KAM1 232029Z 26009KT 09/M12 A3003 RMK A01 T00851117  RH  023%=      5-min Rain = 0
KAM1 232030Z 26007KT 08/M12 A3003 RMK A01 T00831116  RH  023%=      5-min Rain = 0
KAM1 232031Z 28005KT 08/M11 A3003 RMK A01 T00831114  RH  024%=      5-min Rain = 0
KAM1 232032Z 27013KT 09/M11 A3003 RMK A01 T00851111  RH  024%=      5-min Rain = 0
KAM1 232033Z 28011G16KT 09/M11 A3003 RMK A01 T00881112  RH  023%=      5-min Rain = 0
KAM1 232034Z 29009KT 09/M11 A3003 RMK A01 T00871114  RH  023%=      5-min Rain = 0
KAM1 232035Z 27012KT 09/M12 A3003 RMK A01 T00871115  RH  023%=      5-min Rain = 0
KAM1 232036Z 27008KT 09/M12 A3003 RMK A01 T00871120  RH  022%=      5-min Rain = 0
KAM1 232037Z 27008KT 09/M12 A3003 RMK A01 T00851122  RH  022%=      5-min Rain = 0
KAM1 232038Z 28009KT 09/M12 A3003 RMK A01 T00881121  RH  022%=      5-min Rain = 0
KAM1 232039Z 28007KT 09/M13 A3002 RMK A01 T00881125  RH  021%=      5-min Rain = 0
KAM1 232040Z 27007G12KT 09/M13 A3002 RMK A01 T00851126  RH  021%=      5-min Rain = 0
KAM1 232041Z 29011KT 09/M12 A3002 RMK A01 T00861121  RH  022%=      5-min Rain = 0
KAM1 232042Z 27010KT 09/M12 A3002 RMK A01 T00871119  RH  022%=      5-min Rain = 0
KAM1 232043Z 28010KT 09/M12 A3002 RMK A01 T00881119  RH  022%=      5-min Rain = 0
KAM1 232044Z 29009KT 09/M12 A3002 RMK A01 T00881119  RH  022%=      5-min Rain = 0
KAM1 232045Z 29007KT 09/M12 A3002 RMK A01 T00871119  RH  022%=      5-min Rain = 0
KAM1 232046Z 27008KT 09/M12 A3002 RMK A01 T00871118  RH  022%=      5-min Rain = 0
KAM1 232047Z 29007KT 09/M12 A3002 RMK A01 T00871121  RH  022%=      5-min Rain = 0
KAM1 232048Z 28005KT 08/M12 A3002 RMK A01 T00841124  RH  022%=      5-min Rain = 0
KAM1 232049Z 26012KT 08/M12 A3002 RMK A01 T00831123  RH  022%=      5-min Rain = 0
KAM1 232050Z 26011KT 09/M12 A3002 RMK A01 T00861124  RH  021%=      5-min Rain = 0
KAM1 232051Z 28012KT 09/M13 A3002 RMK A01 T00871125  RH  021%=      5-min Rain = 0
KAM1 232052Z 28014KT 09/M13 A3002 RMK A01 T00891125  RH  021%=      5-min Rain = 0
KAM1 232053Z 28010KT 09/M13 A3002 RMK A01 T00891126  RH  021%=      5-min Rain = 0
KAM1 232054Z 29010KT 09/M13 A3002 RMK A01 T00881127  RH  020%=      5-min Rain = 0
KAM1 232055Z 28011KT 09/M13 A3002 RMK A01 T00871126  RH  021%=      5-min Rain = 0
KAM1 232056Z 28010KT 09/M13 A3002 RMK A01 T00871126  RH  021%=      5-min Rain = 0
KAM1 232057Z 27010KT 09/M12 A3002 RMK A01 T00881123  RH  021%=      5-min Rain = 0
KAM1 232058Z 27009KT 09/M12 A3002 RMK A01 T00901121  RH  021%=      5-min Rain = 0
KAM1 232059Z 27008KT 09/M12 A3002 RMK A01 T00901123  RH  021%=      5-min Rain = 0
KAM1 232100Z 28005KT 09/M13 A3002 RMK A01 T00891125  RH  021%=      5-min Rain = 0
KAM1 232101Z 25005KT 09/M12 A3001 RMK A01 T00891122  RH  021%=      5-min Rain = 0
KAM1 232102Z 27008G13KT 09/M12 A3001 RMK A01 T00911121  RH  021%=      5-min Rain = 0
KAM1 232103Z 27010KT 09/M12 A3001 RMK A01 T00931121  RH  021%=      5-min Rain = 0
KAM1 232104Z 29007KT 09/M13 A3001 RMK A01 T00911126  RH  020%=      5-min Rain = 0
KAM1 232105Z 28006KT 09/M13 A3001 RMK A01 T00901125  RH  021%=      5-min Rain = 0
KAM1 232106Z 30007KT 09/M12 A3001 RMK A01 T00901124  RH  021%=      5-min Rain = 0
KAM1 232107Z 29011KT 09/M12 A3001 RMK A01 T00901122  RH  021%=      5-min Rain = 0
KAM1 232108Z 28014KT 09/M12 A3001 RMK A01 T00921120  RH  021%=      5-min Rain = 0
KAM1 232109Z 27011KT 09/M12 A3001 RMK A01 T00931122  RH  021%=      5-min Rain = 0
KAM1 232110Z 28010G15KT 09/M13 A3001 RMK A01 T00921125  RH  020%=      5-min Rain = 0
KAM1 232111Z 28010KT 09/M13 A3001 RMK A01 T00901126  RH  020%=      5-min Rain = 0
KAM1 232112Z 29010KT 09/M12 A3001 RMK A01 T00901124  RH  021%=      5-min Rain = 0
KAM1 232113Z 29010KT 09/M12 A3001 RMK A01 T00901124  RH  021%=      5-min Rain = 0
KAM1 232114Z 29008KT 09/M12 A3001 RMK A01 T00891123  RH  021%=      5-min Rain = 0
KAM1 232115Z 27007KT 09/M12 A3001 RMK A01 T00891123  RH  021%=      5-min Rain = 0
KAM1 232116Z 28012KT 09/M13 A3001 RMK A01 T00891126  RH  020%=      5-min Rain = 0
KAM1 232117Z 28012KT 09/M13 A3001 RMK A01 T00901131  RH  020%=      5-min Rain = 0
KAM1 232118Z 31010KT 09/M13 A3001 RMK A01 T00901132  RH  019%=      5-min Rain = 0
KAM1 232119Z 30008KT 09/M13 A3001 RMK A01 T00901130  RH  020%=      5-min Rain = 0
KAM1 232120Z 27010KT 09/M13 A30 RMK A01 T00901128  RH  020%=      5-min Rain = 0
KAM1 232121Z 26007KT 09/M13 A30 RMK A01 T00911130  RH  020%=      5-min Rain = 0
KAM1 232122Z 25008KT 09/M13 A30 RMK A01 T00911131  RH  019%=      5-min Rain = 0
KAM1 232123Z 24007KT 09/M13 A30 RMK A01 T00911129  RH  020%=      5-min Rain = 0
KAM1 232124Z 26008KT 09/M13 A30 RMK A01 T00911129  RH  020%=      5-min Rain = 0
KAM1 232125Z 27008KT 09/M13 A30 RMK A01 T00911129  RH  020%=      5-min Rain = 0
KAM1 232126Z 28009KT 09/M13 A30 RMK A01 T00911132  RH  019%=      5-min Rain = 0
KAM1 232127Z 30010KT 09/M14 A30 RMK A01 T00921140  RH  018%=      5-min Rain = 0
KAM1 232128Z 31008KT 09/M14 A30 RMK A01 T00921140  RH  018%=      5-min Rain = 0
KAM1 232129Z 31008KT 09/M14 A30 RMK A01 T00911141  RH  018%=      5-min Rain = 0
KAM1 232130Z 31008KT 09/M14 A30 RMK A01 T00921144  RH  017%=      5-min Rain = 0
KAM1 232131Z 32008KT 09/M15 A30 RMK A01 T00921147  RH  017%=      5-min Rain = 0
KAM1 232132Z 30006KT 09/M15 A30 RMK A01 T00901149  RH  017%=      5-min Rain = 0
KAM1 232133Z 28006KT 09/M15 A30 RMK A01 T00901146  RH  017%=      5-min Rain = 0
KAM1 232134Z 27008KT 09/M14 A30 RMK A01 T00911141  RH  018%=      5-min Rain = 0
KAM1 232135Z 27008KT 09/M14 A30 RMK A01 T00911137  RH  019%=      5-min Rain = 0
KAM1 232136Z 29008KT 09/M13 A30 RMK A01 T00901134  RH  019%=      5-min Rain = 0
KAM1 232137Z 29008KT 09/M13 A2999 RMK A01 T00901132  RH  019%=      5-min Rain = 0
KAM1 232138Z 28007KT 09/M13 A2999 RMK A01 T00901133  RH  019%=      5-min Rain = 0
KAM1 232139Z 27009KT 09/M14 A2999 RMK A01 T00891137  RH  019%=      5-min Rain = 0
KAM1 232140Z 27013KT 09/M14 A2999 RMK A01 T00901142  RH  018%=      5-min Rain = 0
KAM1 232141Z 30013KT 09/M14 A2999 RMK A01 T00941138  RH  018%=      5-min Rain = 0
KAM1 232142Z 29012KT 10/M14 A2999 RMK A01 T00951140  RH  018%=      5-min Rain = 0
KAM1 232143Z 30010KT 09/M14 A2999 RMK A01 T00931144  RH  017%=      5-min Rain = 0
KAM1 232144Z 29008KT 09/M15 A2999 RMK A01 T00921145  RH  017%=      5-min Rain = 0
KAM1 232145Z 29011KT 09/M15 A2999 RMK A01 T00901148  RH  017%=      5-min Rain = 0
KAM1 232146Z 31010KT 09/M15 A2999 RMK A01 T00891150  RH  017%=      5-min Rain = 0
KAM1 232147Z 29008KT 09/M15 A2999 RMK A01 T00881148  RH  017%=      5-min Rain = 0
KAM1 232148Z 27006KT 09/M15 A2999 RMK A01 T00901145  RH  017%=      5-min Rain = 0
KAM1 232149Z 29004KT 09/M14 A2999 RMK A01 T00931143  RH  017%=      5-min Rain = 0
KAM1 232150Z 28004KT 09/M14 A2999 RMK A01 T00941143  RH  017%=      5-min Rain = 0
KAM1 232151Z 30010KT 10/M14 A2999 RMK A01 T00951144  RH  017%=      5-min Rain = 0
KAM1 232152Z 29009KT 09/M15 A2999 RMK A01 T00941145  RH  017%=      5-min Rain = 0
KAM1 232153Z 28008KT 09/M15 A2999 RMK A01 T00931146  RH  017%=      5-min Rain = 0
KAM1 232154Z 27008KT 09/M15 A2999 RMK A01 T00911149  RH  017%=      5-min Rain = 0
KAM1 232155Z 28008KT 09/M15 A2999 RMK A01 T00911149  RH  017%=      5-min Rain = 0
KAM1 232156Z 28007KT 09/M15 A2999 RMK A01 T00911147  RH  017%=      5-min Rain = 0
KAM1 232157Z 29007KT 09/M15 A2999 RMK A01 T00911146  RH  017%=      5-min Rain = 0
KAM1 232158Z 28005KT 09/M15 A2999 RMK A01 T00911147  RH  017%=      5-min Rain = 0
KAM1 232159Z 28004KT 09/M15 A2998 RMK A01 T00911147  RH  017%=      5-min Rain = 0
KAM1 232200Z 27009KT 09/M14 A2998 RMK A01 T00931144  RH  017%=      5-min Rain = 0
KAM1 232201Z 26009KT 10/M14 A2998 RMK A01 T00961139  RH  018%=      5-min Rain = 0
KAM1 232202Z 27008KT 10/M14 A2998 RMK A01 T00961140  RH  017%=      5-min Rain = 0
KAM1 232203Z 28008KT 10/M14 A2998 RMK A01 T00951142  RH  017%=      5-min Rain = 0
KAM1 232204Z 28006KT 09/M14 A2998 RMK A01 T00941143  RH  017%=      5-min Rain = 0
KAM1 232205Z 28008KT 09/M14 A2998 RMK A01 T00921144  RH  017%=      5-min Rain = 0
KAM1 232206Z 27008KT 09/M14 A2998 RMK A01 T00921142  RH  018%=      5-min Rain = 0
KAM1 232207Z 27008KT 09/M14 A2998 RMK A01 T00931142  RH  018%=      5-min Rain = 0
KAM1 232208Z 26007KT 09/M15 A2998 RMK A01 T00921145  RH  017%=      5-min Rain = 0
KAM1 232209Z 28009KT 09/M15 A2998 RMK A01 T00911145  RH  017%=      5-min Rain = 0
KAM1 232210Z 29006KT 09/M15 A2998 RMK A01 T00911145  RH  017%=      5-min Rain = 0
KAM1 232211Z 28007KT 09/M15 A2998 RMK A01 T00911145  RH  017%=      5-min Rain = 0
KAM1 232212Z 29007KT 09/M15 A2998 RMK A01 T00911145  RH  017%=      5-min Rain = 0
KAM1 232213Z 28004KT 09/M15 A2998 RMK A01 T00911147  RH  017%=      5-min Rain = 0
KAM1 232214Z 28008KT 09/M15 A2998 RMK A01 T00901149  RH  017%=      5-min Rain = 0
KAM1 232215Z 30007KT 09/M15 A2998 RMK A01 T00901150  RH  017%=      5-min Rain = 0
KAM1 232216Z 27008KT 09/M15 A2998 RMK A01 T00891150  RH  017%=      5-min Rain = 0
KAM1 232217Z 27008KT 09/M15 A2998 RMK A01 T00891150  RH  017%=      5-min Rain = 0
KAM1 232218Z 26007KT 09/M15 A2998 RMK A01 T00891151  RH  017%=      5-min Rain = 0
KAM1 232219Z 27006KT 09/M15 A2998 RMK A01 T00891150  RH  017%=      5-min Rain = 0
KAM1 232220Z 27007KT 09/M15 A2998 RMK A01 T00901149  RH  017%=      5-min Rain = 0
KAM1 232221Z 28007KT 09/M15 A2998 RMK A01 T00911148  RH  017%=      5-min Rain = 0
KAM1 232222Z 27004KT 09/M15 A2998 RMK A01 T00921148  RH  017%=      5-min Rain = 0
KAM1 232223Z 26006KT 09/M15 A2998 RMK A01 T00911147  RH  017%=      5-min Rain = 0
KAM1 232224Z 26006KT 09/M15 A2998 RMK A01 T00921149  RH  017%=      5-min Rain = 0
KAM1 232225Z 27003KT 09/M15 A2998 RMK A01 T00911153  RH  016%=      5-min Rain = 0
KAM1 232226Z 27004KT 09/M15 A2998 RMK A01 T00901152  RH  016%=      5-min Rain = 0
KAM1 232227Z 26008KT 09/M15 A2998 RMK A01 T00921148  RH  017%=      5-min Rain = 0
KAM1 232228Z 27008KT 09/M15 A2998 RMK A01 T00921153  RH  016%=      5-min Rain = 0
KAM1 232229Z 26006KT 09/M15 A2998 RMK A01 T00921153  RH  016%=      5-min Rain = 0
KAM1 232230Z 26007KT 09/M15 A2998 RMK A01 T00911153  RH  016%=      5-min Rain = 0
KAM1 232231Z 26007KT 09/M15 A2998 RMK A01 T00921153  RH  016%=      5-min Rain = 0
KAM1 232232Z 28008KT 09/M15 A2998 RMK A01 T00911154  RH  016%=      5-min Rain = 0
KAM1 232233Z 28008KT 09/M16 A2998 RMK A01 T00911155  RH  016%=      5-min Rain = 0
KAM1 232234Z 28008KT 09/M15 A2998 RMK A01 T00911154  RH  016%=      5-min Rain = 0
KAM1 232235Z 28008KT 09/M16 A2998 RMK A01 T00901155  RH  016%=      5-min Rain = 0
KAM1 232236Z 29007KT 09/M16 A2998 RMK A01 T00901157  RH  016%=      5-min Rain = 0
KAM1 232237Z 30006KT 09/M16 A2998 RMK A01 T00891156  RH  016%=      5-min Rain = 0
KAM1 232238Z 29005KT 09/M15 A2998 RMK A01 T00901154  RH  016%=      5-min Rain = 0
KAM1 232239Z 27004KT 09/M15 A2998 RMK A01 T00911153  RH  016%=      5-min Rain = 0
KAM1 232240Z 28005KT 09/M15 A2998 RMK A01 T00921153  RH  016%=      5-min Rain = 0
KAM1 232241Z 28005KT 09/M15 A2998 RMK A01 T00931153  RH  016%=      5-min Rain = 0
KAM1 232242Z 29007KT 09/M16 A2998 RMK A01 T00921156  RH  016%=      5-min Rain = 0
KAM1 232243Z 30009KT 09/M16 A2998 RMK A01 T00911155  RH  016%=      5-min Rain = 0
KAM1 232244Z 30008KT 09/M16 A2998 RMK A01 T00911155  RH  016%=      5-min Rain = 0
KAM1 232245Z 30007KT 09/M15 A2998 RMK A01 T00901152  RH  016%=      5-min Rain = 0
KAM1 232246Z 30007KT 09/M15 A2998 RMK A01 T00901153  RH  016%=      5-min Rain = 0
KAM1 232247Z 29007KT 09/M15 A2998 RMK A01 T00891154  RH  016%=      5-min Rain = 0
KAM1 232248Z 29007KT 09/M15 A2998 RMK A01 T00891154  RH  016%=      5-min Rain = 0
KAM1 232249Z 30009KT 09/M15 A2998 RMK A01 T00891153  RH  016%=      5-min Rain = 0
KAM1 232250Z 29009KT 09/M15 A2998 RMK A01 T00891154  RH  016%=      5-min Rain = 0
KAM1 232251Z 30008KT 09/M15 A2998 RMK A01 T00891154  RH  016%=      5-min Rain = 0
KAM1 232252Z 29007KT 09/M15 A2998 RMK A01 T00881153  RH  016%=      5-min Rain = 0
KAM1 232253Z 29006KT 09/M15 A2998 RMK A01 T00881154  RH  016%=      5-min Rain = 0
KAM1 232254Z 30005KT 09/M16 A2998 RMK A01 T00871155  RH  016%=      5-min Rain = 0
KAM1 232255Z 29005KT 09/M16 A2998 RMK A01 T00871156  RH  016%=      5-min Rain = 0
KAM1 232256Z 28004KT 09/M15 A2998 RMK A01 T00871153  RH  017%=      5-min Rain = 0
KAM1 232257Z 27004KT 09/M15 A2998 RMK A01 T00881153  RH  016%=      5-min Rain = 0
KAM1 232258Z 28005KT 09/M16 A2998 RMK A01 T00891155  RH  016%=      5-min Rain = 0
KAM1 232259Z 28005KT 09/M16 A2998 RMK A01 T00891156  RH  016%=      5-min Rain = 0
KAM1 232300Z 28006KT 09/M16 A2998 RMK A01 T00891156  RH  016%=      5-min Rain = 0
KAM1 232301Z 27005KT 09/M16 A2998 RMK A01 T00891156  RH  016%=      5-min Rain = 0
KAM1 232302Z 27006KT 09/M16 A2998 RMK A01 T00881156  RH  016%=      5-min Rain = 0
KAM1 232303Z 27005KT 09/M16 A2998 RMK A01 T00881157  RH  016%=      5-min Rain = 0
KAM1 232304Z 27004KT 09/M16 A2998 RMK A01 T00881158  RH  016%=      5-min Rain = 0
KAM1 232305Z 26005KT 09/M16 A2998 RMK A01 T00871157  RH  016%=      5-min Rain = 0
KAM1 232306Z 25005KT 09/M16 A2998 RMK A01 T00881156  RH  016%=      5-min Rain = 0
KAM1 232307Z 26004KT 09/M16 A2998 RMK A01 T00881155  RH  016%=      5-min Rain = 0
KAM1 232308Z 27005KT 09/M16 A2998 RMK A01 T00881155  RH  016%=      5-min Rain = 0
KAM1 232309Z 27004KT 09/M16 A2998 RMK A01 T00881156  RH  016%=      5-min Rain = 0
KAM1 232310Z 27004KT 09/M16 A2998 RMK A01 T00881155  RH  016%=      5-min Rain = 0
KAM1 232311Z 27005KT 09/M15 A2998 RMK A01 T00881154  RH  016%=      5-min Rain = 0
KAM1 232312Z 30005KT 09/M15 A2998 RMK A01 T00881153  RH  016%=      5-min Rain = 0
KAM1 232313Z 31005KT 09/M15 A2998 RMK A01 T00881153  RH  017%=      5-min Rain = 0
KAM1 232314Z 30004KT 09/M15 A2998 RMK A01 T00871152  RH  017%=      5-min Rain = 0
KAM1 232315Z 30004KT 09/M15 A2998 RMK A01 T00871150  RH  017%=      5-min Rain = 0
KAM1 232316Z 29004KT 09/M15 A2998 RMK A01 T00871152  RH  017%=      5-min Rain = 0
KAM1 232317Z 29005KT 09/M15 A2998 RMK A01 T00871151  RH  017%=      5-min Rain = 0
KAM1 232318Z 26005KT 09/M15 A2998 RMK A01 T00871151  RH  017%=      5-min Rain = 0
KAM1 232319Z 26005KT 09/M15 A2998 RMK A01 T00861152  RH  017%=      5-min Rain = 0
KAM1 232320Z 26005KT 09/M15 A2998 RMK A01 T00861153  RH  017%=      5-min Rain = 0
KAM1 232321Z 27005KT 09/M15 A2998 RMK A01 T00851153  RH  017%=      5-min Rain = 0
KAM1 232322Z 27005KT 09/M15 A2998 RMK A01 T00851154  RH  017%=      5-min Rain = 0
KAM1 232323Z 27004KT 09/M15 A2998 RMK A01 T00851154  RH  017%=      5-min Rain = 0
KAM1 232324Z 28005KT 08/M15 A2998 RMK A01 T00841154  RH  017%=      5-min Rain = 0
KAM1 232325Z 28005KT 08/M15 A2998 RMK A01 T00841153  RH  017%=      5-min Rain = 0
KAM1 232326Z 29005KT 08/M15 A2998 RMK A01 T00841153  RH  017%=      5-min Rain = 0
KAM1 232327Z 30006KT 08/M15 A2998 RMK A01 T00831152  RH  017%=      5-min Rain = 0
KAM1 232328Z 28006KT 08/M15 A2998 RMK A01 T00821152  RH  017%=      5-min Rain = 0
KAM1 232329Z 28005KT 08/M15 A2998 RMK A01 T00811152  RH  017%=      5-min Rain = 0
KAM1 232330Z 28005KT 08/M15 A2998 RMK A01 T00811151  RH  018%=      5-min Rain = 0
KAM1 232331Z 28005KT 08/M15 A2998 RMK A01 T00801151  RH  018%=      5-min Rain = 0
KAM1 232332Z 28005KT 08/M15 A2998 RMK A01 T00791152  RH  018%=      5-min Rain = 0
KAM1 232333Z 28004KT 08/M15 A2998 RMK A01 T00791152  RH  018%=      5-min Rain = 0
KAM1 232334Z 28005KT 08/M15 A2998 RMK A01 T00781152  RH  018%=      5-min Rain = 0
KAM1 232335Z 28005KT 08/M15 A2998 RMK A01 T00771152  RH  018%=      5-min Rain = 0
KAM1 232336Z 28004KT 08/M16 A2998 RMK A01 T00771155  RH  018%=      5-min Rain = 0
KAM1 232337Z 28004KT 08/M16 A2998 RMK A01 T00771156  RH  017%=      5-min Rain = 0
KAM1 232338Z 28004KT 08/M16 A2998 RMK A01 T00761155  RH  018%=      5-min Rain = 0
KAM1 232339Z 28004KT 08/M16 A2998 RMK A01 T00751155  RH  018%=      5-min Rain = 0
KAM1 232340Z 28004KT 08/M16 A2998 RMK A01 T00751155  RH  018%=      5-min Rain = 0
KAM1 232341Z 28004KT 07/M16 A2998 RMK A01 T00741156  RH  018%=      5-min Rain = 0
KAM1 232342Z 27004KT 07/M16 A2998 RMK A01 T00731157  RH  018%=      5-min Rain = 0
KAM1 232343Z 27004KT 07/M16 A2998 RMK A01 T00731156  RH  018%=      5-min Rain = 0
KAM1 232344Z 27004KT 07/M16 A2998 RMK A01 T00721156  RH  018%=      5-min Rain = 0
KAM1 232345Z 27003KT 07/M16 A2998 RMK A01 T00711157  RH  018%=      5-min Rain = 0
KAM1 232346Z 27004KT 07/M16 A2998 RMK A01 T00701157  RH  018%=      5-min Rain = 0
KAM1 232347Z 28004KT 07/M16 A2998 RMK A01 T00691157  RH  018%=      5-min Rain = 0
KAM1 232348Z 27003KT 07/M16 A2998 RMK A01 T00681157  RH  018%=      5-min Rain = 0
KAM1 232349Z 27003KT 07/M16 A2998 RMK A01 T00671157  RH  018%=      5-min Rain = 0
KAM1 232350Z 27003KT 07/M16 A2998 RMK A01 T00661157  RH  019%=      5-min Rain = 0
KAM1 232351Z 27004KT 07/M16 A2998 RMK A01 T00651156  RH  019%=      5-min Rain = 0
KAM1 232352Z 27003KT 06/M16 A2998 RMK A01 T00641157  RH  019%=      5-min Rain = 0
KAM1 232353Z 26004KT 06/M16 A2998 RMK A01 T00631157  RH  019%=      5-min Rain = 0
KAM1 232354Z 26004KT 06/M16 A2998 RMK A01 T00611158  RH  019%=      5-min Rain = 0
KAM1 232355Z 25004KT 06/M16 A2998 RMK A01 T00581158  RH  019%=      5-min Rain = 0
KAM1 232356Z 25004KT 06/M16 A2998 RMK A01 T00561156  RH  020%=      5-min Rain = 0
KAM1 232357Z 26004KT 06/M15 A2998 RMK A01 T00551154  RH  021%=      5-min Rain = 0
KAM1 232358Z 25004KT 06/M15 A2998 RMK A01 T00551152  RH  021%=      5-min Rain = 0
KAM1 232359Z 25004KT 06/M15 A2998 RMK A01 T00551152  RH  021%=      5-min Rain = 0
KAM1 240000Z 25004KT 05/M15 A2998 RMK A01 T00541151  RH  021%=      5-min Rain = 0
KAM1 240001Z 25003KT 05/M15 A2998 RMK A01 T00521151  RH  021%=      5-min Rain = 0
KAM1 240002Z 25003KT 05/M15 A2998 RMK A01 T00511151  RH  022%=      5-min Rain = 0
KAM1 240003Z 24003KT 05/M15 A2998 RMK A01 T00491150  RH  022%=      5-min Rain = 0
KAM1 240004Z 24003KT 05/M15 A2998 RMK A01 T00491148  RH  023%=      5-min Rain = 0
KAM1 240005Z 23003KT 05/M15 A2998 RMK A01 T00481147  RH  023%=      5-min Rain = 0
KAM1 240006Z 23003KT 05/M15 A2998 RMK A01 T00481146  RH  023%=      5-min Rain = 0
KAM1 240007Z 23003KT 05/M15 A2998 RMK A01 T00481146  RH  023%=      5-min Rain = 0
KAM1 240008Z 23003KT 05/M15 A2998 RMK A01 T00471146  RH  023%=      5-min Rain = 0
KAM1 240009Z 23004KT 05/M15 A2998 RMK A01 T00471145  RH  023%=      5-min Rain = 0
KAM1 240010Z 23004KT 05/M15 A2998 RMK A01 T00471145  RH  023%=      5-min Rain = 0
KAM1 240011Z 23004KT 05/M15 A2998 RMK A01 T00461145  RH  023%=      5-min Rain = 0
KAM1 240012Z 23004KT 05/M15 A2998 RMK A01 T00451146  RH  023%=      5-min Rain = 0
KAM1 240013Z 23004KT 04/M15 A2998 RMK A01 T00441147  RH  024%=      5-min Rain = 0
KAM1 240014Z 24004KT 04/M15 A2998 RMK A01 T00411148  RH  024%=      5-min Rain = 0
KAM1 240015Z 24004KT 04/M15 A2998 RMK A01 T00381150  RH  024%=      5-min Rain = 0
KAM1 240016Z 25004KT 04/M15 A2998 RMK A01 T00361149  RH  024%=      5-min Rain = 0
KAM1 240017Z 25004KT 04/M15 A2998 RMK A01 T00351149  RH  025%=      5-min Rain = 0
KAM1 240018Z 25004KT 04/M15 A2998 RMK A01 T00351148  RH  025%=      5-min Rain = 0
KAM1 240019Z 25005KT 04/M15 A2998 RMK A01 T00361148  RH  025%=      5-min Rain = 0
KAM1 240020Z 25005KT 04/M15 A2998 RMK A01 T00371148  RH  024%=      5-min Rain = 0
KAM1 240021Z 24005KT 04/M15 A2998 RMK A01 T00371149  RH  024%=      5-min Rain = 0
KAM1 240022Z 24005KT 04/M15 A2998 RMK A01 T00361149  RH  024%=      5-min Rain = 0
KAM1 240023Z 25005KT 04/M15 A2998 RMK A01 T00351150  RH  024%=      5-min Rain = 0
KAM1 240024Z 25005KT 04/M15 A2998 RMK A01 T00351150  RH  024%=      5-min Rain = 0
KAM1 240025Z 25005KT 03/M15 A2998 RMK A01 T00341150  RH  025%=      5-min Rain = 0
KAM1 240026Z 25005KT 03/M15 A2998 RMK A01 T00331150  RH  025%=      5-min Rain = 0
KAM1 240027Z 25005KT 03/M15 A2998 RMK A01 T00331150  RH  025%=      5-min Rain = 0
KAM1 240028Z 25005KT 03/M15 A2998 RMK A01 T00331150  RH  025%=      5-min Rain = 0
KAM1 240029Z 25005KT 03/M15 A2998 RMK A01 T00331149  RH  025%=      5-min Rain = 0
KAM1 240030Z 25006KT 03/M15 A2998 RMK A01 T00331148  RH  025%=      5-min Rain = 0
KAM1 240031Z 25005KT 03/M15 A2998 RMK A01 T00331147  RH  025%=      5-min Rain = 0
KAM1 240032Z 25005KT 03/M15 A2998 RMK A01 T00341146  RH  025%=      5-min Rain = 0
KAM1 240033Z 25005KT 03/M15 A2998 RMK A01 T00341146  RH  026%=      5-min Rain = 0
KAM1 240034Z 25004KT 03/M15 A2998 RMK A01 T00341145  RH  026%=      5-min Rain = 0
KAM1 240035Z 25004KT 03/M15 A2998 RMK A01 T00331145  RH  026%=      5-min Rain = 0
KAM1 240036Z 25004KT 03/M15 A2998 RMK A01 T00331145  RH  026%=      5-min Rain = 0
KAM1 240037Z 25004KT 03/M14 A2998 RMK A01 T00331144  RH  026%=      5-min Rain = 0
KAM1 240038Z 24004KT 03/M14 A2998 RMK A01 T00331144  RH  026%=      5-min Rain = 0
KAM1 240039Z 24004KT 03/M14 A2998 RMK A01 T00331143  RH  026%=      5-min Rain = 0
KAM1 240040Z 23004KT 03/M14 A2998 RMK A01 T00341143  RH  026%=      5-min Rain = 0
KAM1 240041Z 23005KT 03/M14 A2998 RMK A01 T00341143  RH  026%=      5-min Rain = 0
KAM1 240042Z 23004KT 03/M14 A2998 RMK A01 T00341143  RH  026%=      5-min Rain = 0
KAM1 240043Z 23004KT 03/M14 A2998 RMK A01 T00341144  RH  026%=      5-min Rain = 0
KAM1 240044Z 23004KT 03/M15 A2998 RMK A01 T00331145  RH  026%=      5-min Rain = 0
KAM1 240045Z 24004KT 03/M15 A2998 RMK A01 T00341145  RH  026%=      5-min Rain = 0
KAM1 240046Z 24004KT 03/M15 A2998 RMK A01 T00331146  RH  026%=      5-min Rain = 0
KAM1 240047Z 24004KT 03/M15 A2998 RMK A01 T00331146  RH  026%=      5-min Rain = 0
KAM1 240048Z 24004KT 03/M15 A2998 RMK A01 T00321146  RH  026%=      5-min Rain = 0
KAM1 240049Z 24004KT 03/M15 A2998 RMK A01 T00311146  RH  026%=      5-min Rain = 0
KAM1 240050Z 24004KT 03/M15 A2998 RMK A01 T00291147  RH  026%=      5-min Rain = 0
KAM1 240051Z 24004KT 03/M15 A2998 RMK A01 T00271146  RH  027%=      5-min Rain = 0
KAM1 240052Z 24004KT 03/M15 A2998 RMK A01 T00261147  RH  027%=      5-min Rain = 0
KAM1 240053Z 24004KT 03/M15 A2998 RMK A01 T00251147  RH  027%=      5-min Rain = 0
KAM1 240054Z 24004KT 02/M15 A2998 RMK A01 T00241147  RH  027%=      5-min Rain = 0
KAM1 240055Z 24004KT 02/M15 A2998 RMK A01 T00241146  RH  027%=      5-min Rain = 0
KAM1 240056Z 24004KT 03/M15 A2998 RMK A01 T00251145  RH  027%=      5-min Rain = 0
KAM1 240057Z 23004KT 03/M14 A2998 RMK A01 T00251144  RH  027%=      5-min Rain = 0
KAM1 240058Z 23004KT 03/M15 A2998 RMK A01 T00261145  RH  027%=      5-min Rain = 0
KAM1 240059Z 24004KT 03/M14 A2998 RMK A01 T00261144  RH  027%=      5-min Rain = 0
KAM1 240100Z 24004KT 03/M14 A2998 RMK A01 T00261144  RH  027%=      5-min Rain = 0
KAM1 240101Z 24004KT 03/M14 A2998 RMK A01 T00261144  RH  027%=      5-min Rain = 0
KAM1 240102Z 24004KT 03/M14 A2998 RMK A01 T00271143  RH  027%=      5-min Rain = 0
KAM1 240103Z 24004KT 03/M14 A2998 RMK A01 T00271144  RH  027%=      5-min Rain = 0
KAM1 240104Z 25004KT 03/M14 A2998 RMK A01 T00271144  RH  027%=      5-min Rain = 0
KAM1 240105Z 25004KT 03/M14 A2998 RMK A01 T00281144  RH  027%=      5-min Rain = 0
KAM1 240106Z 24004KT 03/M14 A2998 RMK A01 T00271144  RH  027%=      5-min Rain = 0
KAM1 240107Z 23004KT 03/M14 A2998 RMK A01 T00271144  RH  027%=      5-min Rain = 0
KAM1 240108Z 23004KT 03/M14 A2998 RMK A01 T00261144  RH  027%=      5-min Rain = 0
KAM1 240109Z 23004KT 03/M14 A2998 RMK A01 T00261144  RH  027%=      5-min Rain = 0
KAM1 240110Z 23004KT 03/M14 A2998 RMK A01 T00251144  RH  027%=      5-min Rain = 0
KAM1 240111Z 23004KT 03/M14 A2998 RMK A01 T00251144  RH  027%=      5-min Rain = 0
KAM1 240112Z 23004KT 03/M14 A2998 RMK A01 T00261144  RH  027%=      5-min Rain = 0
KAM1 240113Z 23004KT 03/M14 A2998 RMK A01 T00261143  RH  027%=      5-min Rain = 0
KAM1 240114Z 23004KT 03/M14 A2998 RMK A01 T00271143  RH  027%=      5-min Rain = 0
KAM1 240115Z 23004KT 03/M14 A2998 RMK A01 T00281143  RH  027%=      5-min Rain = 0
KAM1 240116Z 23004KT 03/M14 A2998 RMK A01 T00291143  RH  027%=      5-min Rain = 0
KAM1 240117Z 23004KT 03/M14 A2998 RMK A01 T00301142  RH  027%=      5-min Rain = 0
KAM1 240118Z 23003KT 03/M14 A2998 RMK A01 T00291143  RH  027%=      5-min Rain = 0
KAM1 240119Z 23003KT 03/M14 A2998 RMK A01 T00291143  RH  027%=      5-min Rain = 0
KAM1 240120Z 22003KT 03/M14 A2998 RMK A01 T00301143  RH  027%=      5-min Rain = 0
KAM1 240121Z 22003KT 03/M14 A2998 RMK A01 T00301143  RH  027%=      5-min Rain = 0
KAM1 240122Z 21003KT 03/M14 A2998 RMK A01 T00311143  RH  027%=      5-min Rain = 0
KAM1 240123Z 21003KT 03/M14 A2998 RMK A01 T00311143  RH  027%=      5-min Rain = 0
KAM1 240124Z 21003KT 03/M14 A2998 RMK A01 T00301144  RH  027%=      5-min Rain = 0
KAM1 240125Z 21003KT 03/M14 A2998 RMK A01 T00301144  RH  027%=      5-min Rain = 0
KAM1 240126Z 21003KT 03/M15 A2998 RMK A01 T00291145  RH  027%=      5-min Rain = 0
KAM1 240127Z 21003KT 03/M15 A2998 RMK A01 T00261146  RH  027%=      5-min Rain = 0
KAM1 240128Z 21003KT 02/M15 A2998 RMK A01 T00191152  RH  027%=      5-min Rain = 0
KAM1 240129Z 20003KT 01/M15 A2998 RMK A01 T00121153  RH  028%=      5-min Rain = 0
KAM1 240130Z 20002KT 01/M15 A2998 RMK A01 T00081150  RH  030%=      5-min Rain = 0
KAM1 240131Z 20002KT 01/M15 A2997 RMK A01 T00071148  RH  030%=      5-min Rain = 0
KAM1 240132Z 20003KT 01/M15 A2997 RMK A01 T00071147  RH  031%=      5-min Rain = 0
KAM1 240133Z 20003KT 01/M14 A2997 RMK A01 T00071144  RH  031%=      5-min Rain = 0
KAM1 240134Z 20003KT 01/M14 A2998 RMK A01 T00091142  RH  031%=      5-min Rain = 0
KAM1 240135Z 19003KT 01/M14 A2997 RMK A01 T00101140  RH  032%=      5-min Rain = 0
KAM1 240136Z 19003KT 01/M14 A2997 RMK A01 T00101136  RH  033%=      5-min Rain = 0
KAM1 240137Z 19003KT 01/M14 A2997 RMK A01 T00091136  RH  033%=      5-min Rain = 0
KAM1 240138Z 18004KT 01/M14 A2997 RMK A01 T00091136  RH  033%=      5-min Rain = 0
KAM1 240139Z 17004KT 01/M14 A2998 RMK A01 T00071137  RH  033%=      5-min Rain = 0
KAM1 240140Z 17003KT 00/M14 A2997 RMK A01 T00041140  RH  033%=      5-min Rain = 0
KAM1 240141Z 18003KT 00/14 A2997 RMK A01 T00-00-143  RH  033%=      5-min Rain = 0
KAM1 240142Z 18004KT M00/M14 A2998 RMK A01 T10031144  RH  034%=      5-min Rain = 0
KAM1 240143Z 19004KT M00/M14 A2998 RMK A01 T10041144  RH  034%=      5-min Rain = 0
KAM1 240144Z 19004KT M01/M14 A2998 RMK A01 T10051139  RH  035%=      5-min Rain = 0
KAM1 240145Z 19004KT M00/M13 A2998 RMK A01 T10041131  RH  038%=      5-min Rain = 0
KAM1 240146Z 20004KT M00/M12 A2998 RMK A01 T10031123  RH  040%=      5-min Rain = 0
KAM1 240147Z 19005KT M00/M12 A2998 RMK A01 T10011117  RH  041%=      5-min Rain = 0
KAM1 240148Z 19005KT M00/M12 A2998 RMK A01 T10011116  RH  042%=      5-min Rain = 0
KAM1 240149Z 19005KT 00/12 A2998 RMK A01 T00-00-118  RH  041%=      5-min Rain = 0
KAM1 240150Z 19005KT 00/M12 A2998 RMK A01 T00011122  RH  039%=      5-min Rain = 0
KAM1 240151Z 19005KT 00/M13 A2998 RMK A01 T00021133  RH  036%=      5-min Rain = 0
KAM1 240152Z 19005KT 00/M14 A2998 RMK A01 T00031137  RH  034%=      5-min Rain = 0
KAM1 240153Z 18005KT 00/M14 A2998 RMK A01 T00041139  RH  033%=      5-min Rain = 0
KAM1 240154Z 18005KT 01/M14 A2997 RMK A01 T00051139  RH  033%=      5-min Rain = 0
KAM1 240155Z 18005KT 01/M14 A2997 RMK A01 T00051140  RH  033%=      5-min Rain = 0
KAM1 240156Z 18006KT 01/M14 A2997 RMK A01 T00061140  RH  033%=      5-min Rain = 0
KAM1 240157Z 18005KT 01/M14 A2997 RMK A01 T00071140  RH  032%=      5-min Rain = 0
KAM1 240158Z 18005KT 01/M14 A2997 RMK A01 T00081141  RH  032%=      5-min Rain = 0
KAM1 240159Z 18005KT 01/M14 A2997 RMK A01 T00091141  RH  032%=      5-min Rain = 0
KAM1 240200Z 18005KT 01/M14 A2997 RMK A01 T00071143  RH  031%=      5-min Rain = 0
KAM1 240201Z 18006KT 01/M14 A2997 RMK A01 T00061144  RH  032%=      5-min Rain = 0
KAM1 240202Z 18006KT 01/M14 A2997 RMK A01 T00051143  RH  032%=      5-min Rain = 0
KAM1 240203Z 18006KT 01/M14 A2997 RMK A01 T00051143  RH  032%=      5-min Rain = 0
KAM1 240204Z 18006KT 00/M14 A2997 RMK A01 T00041143  RH  032%=      5-min Rain = 0
KAM1 240205Z 18006KT 00/M14 A2997 RMK A01 T00021144  RH  032%=      5-min Rain = 0
KAM1 240206Z 18006KT 00/M14 A2997 RMK A01 T00011144  RH  033%=      5-min Rain = 0
KAM1 240207Z 18005KT M00/M15 A2997 RMK A01 T10011146  RH  033%=      5-min Rain = 0
KAM1 240208Z 18005KT M00/M15 A2997 RMK A01 T10041147  RH  033%=      5-min Rain = 0
KAM1 240209Z 17005KT M01/M15 A2997 RMK A01 T10081148  RH  034%=      5-min Rain = 0
KAM1 240210Z 17005KT M01/M15 A2997 RMK A01 T10101148  RH  034%=      5-min Rain = 0
KAM1 240211Z 17005KT M01/M15 A2997 RMK A01 T10111147  RH  035%=      5-min Rain = 0
KAM1 240212Z 17005KT M01/M15 A2997 RMK A01 T10121147  RH  035%=      5-min Rain = 0
KAM1 240213Z 17005KT M01/M15 A2997 RMK A01 T10131147  RH  036%=      5-min Rain = 0
KAM1 240214Z 17005KT M01/M15 A2997 RMK A01 T10141146  RH  036%=      5-min Rain = 0
KAM1 240215Z 17005KT M01/M15 A2997 RMK A01 T10131145  RH  036%=      5-min Rain = 0
KAM1 240216Z 18005KT M01/M14 A2997 RMK A01 T10121144  RH  036%=      5-min Rain = 0
KAM1 240217Z 18005KT M01/M14 A2997 RMK A01 T10111143  RH  036%=      5-min Rain = 0
KAM1 240218Z 18005KT M01/M14 A2997 RMK A01 T10101143  RH  036%=      5-min Rain = 0
KAM1 240219Z 18005KT M01/M14 A2997 RMK A01 T10101143  RH  036%=      5-min Rain = 0
KAM1 240220Z 18005KT M01/M14 A2997 RMK A01 T10101143  RH  036%=      5-min Rain = 0
KAM1 240221Z 18005KT M01/M14 A2997 RMK A01 T10111143  RH  036%=      5-min Rain = 0
KAM1 240222Z 17005KT M01/M14 A2997 RMK A01 T10101142  RH  036%=      5-min Rain = 0
KAM1 240223Z 17005KT M01/M14 A2997 RMK A01 T10101142  RH  036%=      5-min Rain = 0
KAM1 240224Z 17005KT M01/M14 A2997 RMK A01 T10091142  RH  036%=      5-min Rain = 0
KAM1 240225Z 17005KT M01/M14 A2997 RMK A01 T10081141  RH  036%=      5-min Rain = 0
KAM1 240226Z 17005KT M01/M14 A2997 RMK A01 T10071141  RH  035%=      5-min Rain = 0
KAM1 240227Z 17006KT M01/M14 A2997 RMK A01 T10071141  RH  035%=      5-min Rain = 0
KAM1 240228Z 17006KT M01/M14 A2997 RMK A01 T10071142  RH  035%=      5-min Rain = 0
KAM1 240229Z 17006KT M01/M14 A2997 RMK A01 T10061142  RH  035%=      5-min Rain = 0
KAM1 240230Z 17005KT M01/M14 A2997 RMK A01 T10071142  RH  035%=      5-min Rain = 0
KAM1 240231Z 17005KT M01/M14 A2997 RMK A01 T10071143  RH  035%=      5-min Rain = 0
KAM1 240232Z 17005KT M01/M14 A2997 RMK A01 T10081143  RH  035%=      5-min Rain = 0
KAM1 240233Z 17005KT M01/M14 A2997 RMK A01 T10081143  RH  035%=      5-min Rain = 0
KAM1 240234Z 17005KT M01/M14 A2997 RMK A01 T10091143  RH  035%=      5-min Rain = 0
KAM1 240235Z 17006KT M01/M14 A2997 RMK A01 T10081142  RH  035%=      5-min Rain = 0
KAM1 240236Z 17006KT M01/M14 A2997 RMK A01 T10061141  RH  035%=      5-min Rain = 0
KAM1 240237Z 17006KT M00/M14 A2997 RMK A01 T10041141  RH  035%=      5-min Rain = 0
KAM1 240238Z 17006KT M00/M14 A2997 RMK A01 T10031141  RH  034%=      5-min Rain = 0
KAM1 240239Z 17006KT M00/M14 A2996 RMK A01 T10021142  RH  034%=      5-min Rain = 0
KAM1 240240Z 17005KT M00/M14 A2996 RMK A01 T10031142  RH  034%=      5-min Rain = 0
KAM1 240241Z 17005KT M00/M14 A2996 RMK A01 T10041143  RH  034%=      5-min Rain = 0
KAM1 240242Z 17005KT M01/M14 A2996 RMK A01 T10061144  RH  035%=      5-min Rain = 0
KAM1 240243Z 17005KT M01/M14 A2996 RMK A01 T10071143  RH  035%=      5-min Rain = 0
KAM1 240244Z 17005KT M01/M14 A2996 RMK A01 T10051142  RH  035%=      5-min Rain = 0
KAM1 240245Z 17005KT M00/M14 A2996 RMK A01 T10021140  RH  035%=      5-min Rain = 0
KAM1 240246Z 17005KT M00/M14 A2996 RMK A01 T10011141  RH  034%=      5-min Rain = 0
KAM1 240247Z 17005KT M00/M14 A2996 RMK A01 T10011141  RH  034%=      5-min Rain = 0
KAM1 240248Z 17005KT M00/M14 A2996 RMK A01 T10021140  RH  034%=      5-min Rain = 0
KAM1 240249Z 17006KT M00/M14 A2996 RMK A01 T10021139  RH  035%=      5-min Rain = 0
KAM1 240250Z 16006KT M00/M14 A2996 RMK A01 T10011137  RH  035%=      5-min Rain = 0
KAM1 240251Z 16006KT 00/14 A2996 RMK A01 T00000-136  RH  035%=      5-min Rain = 0
KAM1 240252Z 16006KT 00/14 A2996 RMK A01 T00000-137  RH  035%=      5-min Rain = 0
KAM1 240253Z 16006KT 00/14 A2996 RMK A01 T00000-138  RH  035%=      5-min Rain = 0
KAM1 240254Z 16006KT 00/M14 A2996 RMK A01 T00011139  RH  034%=      5-min Rain = 0
KAM1 240255Z 17007KT 00/14 A2996 RMK A01 T00000-141  RH  034%=      5-min Rain = 0
KAM1 240256Z 17006KT M00/M14 A2996 RMK A01 T10011142  RH  034%=      5-min Rain = 0
KAM1 240257Z 17007KT M00/M14 A2996 RMK A01 T10031144  RH  034%=      5-min Rain = 0
KAM1 240258Z 17006KT M01/M15 A2996 RMK A01 T10061145  RH  034%=      5-min Rain = 0
KAM1 240259Z 17006KT M01/M15 A2996 RMK A01 T10091145  RH  035%=      5-min Rain = 0
KAM1 240300Z 17006KT M01/M15 A2996 RMK A01 T10101145  RH  035%=      5-min Rain = 0
KAM1 240301Z 17006KT M01/M15 A2996 RMK A01 T10111145  RH  035%=      5-min Rain = 0
KAM1 240302Z 17006KT M01/M14 A2996 RMK A01 T10121144  RH  036%=      5-min Rain = 0
KAM1 240303Z 17006KT M01/M15 A2996 RMK A01 T10121145  RH  036%=      5-min Rain = 0
KAM1 240304Z 17006KT M01/M15 A2996 RMK A01 T10131145  RH  036%=      5-min Rain = 0
KAM1 240305Z 17006KT M02/M15 A2996 RMK A01 T10151146  RH  036%=      5-min Rain = 0
KAM1 240306Z 17006KT M02/M15 A2996 RMK A01 T10171147  RH  036%=      5-min Rain = 0
KAM1 240307Z 17006KT M02/M15 A2996 RMK A01 T10171147  RH  036%=      5-min Rain = 0
KAM1 240308Z 17005KT M02/M15 A2996 RMK A01 T10181147  RH  037%=      5-min Rain = 0
KAM1 240309Z 17005KT M02/M15 A2996 RMK A01 T10181145  RH  037%=      5-min Rain = 0
KAM1 240310Z 16006KT M02/M15 A2996 RMK A01 T10201146  RH  038%=      5-min Rain = 0
KAM1 240311Z 16006KT M02/M14 A2996 RMK A01 T10221144  RH  039%=      5-min Rain = 0
KAM1 240312Z 16007KT M02/M14 A2995 RMK A01 T10221143  RH  039%=      5-min Rain = 0
KAM1 240313Z 15007KT M02/M14 A2995 RMK A01 T10211143  RH  039%=      5-min Rain = 0
KAM1 240314Z 15007KT M02/M14 A2995 RMK A01 T10211142  RH  039%=      5-min Rain = 0
KAM1 240315Z 15007KT M02/M14 A2995 RMK A01 T10211142  RH  039%=      5-min Rain = 0
KAM1 240316Z 14007KT M02/M14 A2995 RMK A01 T10231144  RH  039%=      5-min Rain = 0
KAM1 240317Z 14007KT M03/M15 A2995 RMK A01 T10261145  RH  039%=      5-min Rain = 0
KAM1 240318Z 14006KT M03/M15 A2995 RMK A01 T10311149  RH  040%=      5-min Rain = 0
KAM1 240319Z 14006KT M04/M15 A2995 RMK A01 T10391153  RH  041%=      5-min Rain = 0
KAM1 240320Z 14006KT M04/M15 A2994 RMK A01 T10431153  RH  042%=      5-min Rain = 0
KAM1 240321Z 14006KT M05/M15 A2994 RMK A01 T10451151  RH  043%=      5-min Rain = 0
KAM1 240322Z 14006KT M05/M15 A2994 RMK A01 T10451150  RH  044%=      5-min Rain = 0
KAM1 240323Z 14007KT M05/M15 A2994 RMK A01 T10451149  RH  044%=      5-min Rain = 0
KAM1 240324Z 13007KT M04/M15 A2994 RMK A01 T10431148  RH  044%=      5-min Rain = 0
KAM1 240325Z 13007KT M04/M15 A2994 RMK A01 T10441148  RH  044%=      5-min Rain = 0
KAM1 240326Z 14007KT M05/M15 A2994 RMK A01 T10451149  RH  044%=      5-min Rain = 0
KAM1 240327Z 13006KT M05/M15 A2994 RMK A01 T10471150  RH  044%=      5-min Rain = 0
KAM1 240328Z 14006KT M05/M15 A2994 RMK A01 T10471149  RH  045%=      5-min Rain = 0
KAM1 240329Z 14006KT M05/M15 A2994 RMK A01 T10481149  RH  045%=      5-min Rain = 0
KAM1 240330Z 15006KT M05/M15 A2994 RMK A01 T10481148  RH  045%=      5-min Rain = 0
KAM1 240331Z 15006KT M05/M15 A2994 RMK A01 T10471146  RH  046%=      5-min Rain = 0
KAM1 240332Z 15006KT M05/M15 A2994 RMK A01 T10461145  RH  046%=      5-min Rain = 0
KAM1 240333Z 15006KT M04/M14 A2994 RMK A01 T10441144  RH  046%=      5-min Rain = 0
KAM1 240334Z 15006KT M04/M14 A2994 RMK A01 T10431143  RH  046%=      5-min Rain = 0
KAM1 240335Z 15006KT M04/M14 A2994 RMK A01 T10411140  RH  046%=      5-min Rain = 0
KAM1 240336Z 14006KT M04/M14 A2994 RMK A01 T10381138  RH  046%=      5-min Rain = 0
KAM1 240337Z 14005KT M04/M14 A2994 RMK A01 T10351138  RH  045%=      5-min Rain = 0
KAM1 240338Z 13005KT M03/M14 A2994 RMK A01 T10341138  RH  044%=      5-min Rain = 0
KAM1 240339Z 14004KT M03/M14 A2994 RMK A01 T10311137  RH  044%=      5-min Rain = 0
KAM1 240340Z 14005KT M03/M14 A2994 RMK A01 T10301138  RH  043%=      5-min Rain = 0
KAM1 240341Z 14005KT M03/M14 A2994 RMK A01 T10291137  RH  043%=      5-min Rain = 0
KAM1 240342Z 14005KT M03/M14 A2994 RMK A01 T10271138  RH  042%=      5-min Rain = 0
KAM1 240343Z 14005KT M03/M14 A2994 RMK A01 T10261138  RH  042%=      5-min Rain = 0
KAM1 240344Z 14005KT M03/M14 A2994 RMK A01 T10251137  RH  042%=      5-min Rain = 0
KAM1 240345Z 14005KT M03/M14 A2994 RMK A01 T10261136  RH  043%=      5-min Rain = 0
KAM1 240346Z 14005KT M03/M14 A2994 RMK A01 T10271135  RH  043%=      5-min Rain = 0
KAM1 240347Z 14005KT M03/M14 A2994 RMK A01 T10271136  RH  043%=      5-min Rain = 0
KAM1 240348Z 14005KT M03/M14 A2994 RMK A01 T10271137  RH  043%=      5-min Rain = 0
KAM1 240349Z 15006KT M03/M14 A2994 RMK A01 T10271136  RH  043%=      5-min Rain = 0
KAM1 240350Z 15006KT M03/M14 A2994 RMK A01 T10261136  RH  042%=      5-min Rain = 0
KAM1 240351Z 15006KT M03/M14 A2994 RMK A01 T10251136  RH  042%=      5-min Rain = 0
KAM1 240352Z 15006KT M02/M14 A2994 RMK A01 T10231136  RH  041%=      5-min Rain = 0
KAM1 240353Z 14006KT M02/M14 A2994 RMK A01 T10221137  RH  041%=      5-min Rain = 0
KAM1 240354Z 14006KT M02/M14 A2994 RMK A01 T10231138  RH  041%=      5-min Rain = 0
KAM1 240355Z 15006KT M02/M14 A2994 RMK A01 T10241139  RH  041%=      5-min Rain = 0
KAM1 240356Z 15006KT M03/M14 A2994 RMK A01 T10251141  RH  041%=      5-min Rain = 0
KAM1 240357Z 15006KT M03/M14 A2994 RMK A01 T10271141  RH  041%=      5-min Rain = 0
KAM1 240358Z 14006KT M03/M14 A2994 RMK A01 T10281141  RH  041%=      5-min Rain = 0
KAM1 240359Z 14006KT M03/M14 A2994 RMK A01 T10291141  RH  042%=      5-min Rain = 0
KAM1 240400Z 14006KT M03/M14 A2994 RMK A01 T10281141  RH  041%=      5-min Rain = 0
KAM1 240401Z 14006KT M03/M14 A2994 RMK A01 T10261142  RH  041%=      5-min Rain = 0
KAM1 240402Z 15006KT M03/M14 A2994 RMK A01 T10251142  RH  040%=      5-min Rain = 0
KAM1 240403Z 15006KT M02/M14 A2994 RMK A01 T10241143  RH  040%=      5-min Rain = 0
KAM1 240404Z 15007KT M02/M14 A2994 RMK A01 T10221143  RH  039%=      5-min Rain = 0
KAM1 240405Z 15007KT M02/M15 A2994 RMK A01 T10211145  RH  038%=      5-min Rain = 0
KAM1 240406Z 15007KT M02/M15 A2994 RMK A01 T10221146  RH  038%=      5-min Rain = 0
KAM1 240407Z 15007KT M02/M15 A2994 RMK A01 T10231148  RH  038%=      5-min Rain = 0
KAM1 240408Z 15006KT M02/M15 A2994 RMK A01 T10241148  RH  038%=      5-min Rain = 0
KAM1 240409Z 15006KT M03/M15 A2994 RMK A01 T10251148  RH  038%=      5-min Rain = 0
KAM1 240410Z 15006KT M03/M15 A2994 RMK A01 T10261148  RH  039%=      5-min Rain = 0
KAM1 240411Z 15006KT M03/M15 A2994 RMK A01 T10271147  RH  039%=      5-min Rain = 0
KAM1 240412Z 15006KT M03/M15 A2994 RMK A01 T10271146  RH  039%=      5-min Rain = 0
KAM1 240413Z 15006KT M02/M15 A2994 RMK A01 T10241145  RH  039%=      5-min Rain = 0
KAM1 240414Z 15006KT M02/M15 A2994 RMK A01 T10231145  RH  039%=      5-min Rain = 0
KAM1 240415Z 15006KT M02/M15 A2994 RMK A01 T10221145  RH  038%=      5-min Rain = 0
KAM1 240416Z 15006KT M02/M15 A2994 RMK A01 T10221146  RH  038%=      5-min Rain = 0
KAM1 240417Z 15006KT M02/M15 A2994 RMK A01 T10211146  RH  038%=      5-min Rain = 0
KAM1 240418Z 15006KT M02/M15 A2994 RMK A01 T10191146  RH  037%=      5-min Rain = 0
KAM1 240419Z 16006KT M02/M15 A2994 RMK A01 T10181147  RH  037%=      5-min Rain = 0
KAM1 240420Z 16006KT M02/M15 A2994 RMK A01 T10181147  RH  037%=      5-min Rain = 0
KAM1 240421Z 16006KT M02/M15 A2994 RMK A01 T10201148  RH  037%=      5-min Rain = 0
KAM1 240422Z 16006KT M02/M15 A2994 RMK A01 T10241150  RH  037%=      5-min Rain = 0
KAM1 240423Z 16006KT M03/M15 A2994 RMK A01 T10261150  RH  038%=      5-min Rain = 0
KAM1 240424Z 16006KT M03/M15 A2994 RMK A01 T10271150  RH  038%=      5-min Rain = 0
KAM1 240425Z 16006KT M03/M15 A2994 RMK A01 T10271148  RH  039%=      5-min Rain = 0
KAM1 240426Z 17006KT M03/M15 A2994 RMK A01 T10271147  RH  039%=      5-min Rain = 0
KAM1 240427Z 16006KT M02/M15 A2994 RMK A01 T10241145  RH  039%=      5-min Rain = 0
KAM1 240428Z 16006KT M02/M14 A2994 RMK A01 T10231144  RH  039%=      5-min Rain = 0
KAM1 240429Z 16006KT M02/M14 A2994 RMK A01 T10231144  RH  039%=      5-min Rain = 0
KAM1 240430Z 16006KT M02/M14 A2994 RMK A01 T10231144  RH  039%=      5-min Rain = 0
KAM1 240431Z 16006KT M02/M14 A2994 RMK A01 T10231144  RH  039%=      5-min Rain = 0
KAM1 240432Z 16006KT M02/M14 A2994 RMK A01 T10211143  RH  039%=      5-min Rain = 0
KAM1 240433Z 16006KT M02/M14 A2994 RMK A01 T10211143  RH  039%=      5-min Rain = 0
KAM1 240434Z 16006KT M02/M14 A2994 RMK A01 T10221144  RH  039%=      5-min Rain = 0
KAM1 240435Z 16006KT M02/M14 A2993 RMK A01 T10231144  RH  039%=      5-min Rain = 0
KAM1 240436Z 16006KT M02/M14 A2993 RMK A01 T10241144  RH  039%=      5-min Rain = 0
KAM1 240437Z 16006KT M03/M15 A2993 RMK A01 T10261145  RH  040%=      5-min Rain = 0
KAM1 240438Z 16006KT M03/M15 A2993 RMK A01 T10281145  RH  040%=      5-min Rain = 0
KAM1 240439Z 16005KT M03/M15 A2993 RMK A01 T10291145  RH  040%=      5-min Rain = 0
KAM1 240440Z 15005KT M03/M15 A2993 RMK A01 T10301145  RH  041%=      5-min Rain = 0
KAM1 240441Z 15005KT M03/M15 A2993 RMK A01 T10311145  RH  041%=      5-min Rain = 0
KAM1 240442Z 14005KT M03/M14 A2993 RMK A01 T10311144  RH  041%=      5-min Rain = 0
KAM1 240443Z 14005KT M03/M14 A2993 RMK A01 T10301144  RH  041%=      5-min Rain = 0
KAM1 240444Z 14005KT M03/M14 A2993 RMK A01 T10291144  RH  041%=      5-min Rain = 0
KAM1 240445Z 14005KT M03/M15 A2993 RMK A01 T10321145  RH  041%=      5-min Rain = 0
KAM1 240446Z 14005KT M04/M15 A2993 RMK A01 T10351146  RH  042%=      5-min Rain = 0
KAM1 240447Z 13005KT M04/M15 A2993 RMK A01 T10381147  RH  042%=      5-min Rain = 0
KAM1 240448Z 13005KT M04/M15 A2993 RMK A01 T10411149  RH  043%=      5-min Rain = 0
KAM1 240449Z 14005KT M05/M15 A2993 RMK A01 T10461152  RH  043%=      5-min Rain = 0
KAM1 240450Z 14005KT M05/M15 A2993 RMK A01 T10501153  RH  044%=      5-min Rain = 0
KAM1 240451Z 14005KT M05/M15 A2993 RMK A01 T10521153  RH  045%=      5-min Rain = 0
KAM1 240452Z 14005KT M05/M15 A2993 RMK A01 T10531152  RH  046%=      5-min Rain = 0
KAM1 240453Z 14005KT M05/M15 A2993 RMK A01 T10521151  RH  046%=      5-min Rain = 0
KAM1 240454Z 14005KT M05/M15 A2993 RMK A01 T10511151  RH  046%=      5-min Rain = 0
KAM1 240455Z 14005KT M05/M15 A2993 RMK A01 T10511152  RH  045%=      5-min Rain = 0
KAM1 240456Z 13005KT M05/M15 A2993 RMK A01 T10521152  RH  045%=      5-min Rain = 0
KAM1 240457Z 13005KT M05/M15 A2993 RMK A01 T10541154  RH  045%=      5-min Rain = 0
KAM1 240458Z 13005KT M06/M16 A2993 RMK A01 T10571155  RH  046%=      5-min Rain = 0
KAM1 240459Z 14006KT M06/M16 A2993 RMK A01 T10591155  RH  047%=      5-min Rain = 0
KAM1 240500Z 14006KT M06/M15 A2993 RMK A01 T10601154  RH  047%=      5-min Rain = 0
KAM1 240501Z 14006KT M06/M15 A2993 RMK A01 T10591154  RH  047%=      5-min Rain = 0
KAM1 240502Z 14006KT M06/M15 A2993 RMK A01 T10581154  RH  047%=      5-min Rain = 0
KAM1 240503Z 14006KT M06/M15 A2992 RMK A01 T10571153  RH  047%=      5-min Rain = 0
KAM1 240504Z 14007KT M06/M15 A2992 RMK A01 T10561152  RH  046%=      5-min Rain = 0
KAM1 240505Z 14006KT M06/M15 A2992 RMK A01 T10551153  RH  046%=      5-min Rain = 0
KAM1 240506Z 14007KT M06/M15 A2992 RMK A01 T10551153  RH  046%=      5-min Rain = 0
KAM1 240507Z 14007KT M05/M15 A2992 RMK A01 T10541153  RH  046%=      5-min Rain = 0
KAM1 240508Z 14007KT M05/M15 A2992 RMK A01 T10521152  RH  046%=      5-min Rain = 0
KAM1 240509Z 14006KT M05/M15 A2992 RMK A01 T10511152  RH  045%=      5-min Rain = 0
KAM1 240510Z 14006KT M05/M15 A2992 RMK A01 T10511152  RH  045%=      5-min Rain = 0
KAM1 240511Z 14006KT M05/M15 A2992 RMK A01 T10511152  RH  045%=      5-min Rain = 0
KAM1 240512Z 14007KT M05/M15 A2992 RMK A01 T10521152  RH  045%=      5-min Rain = 0
KAM1 240513Z 14007KT M05/M15 A2992 RMK A01 T10531151  RH  046%=      5-min Rain = 0
KAM1 240514Z 14006KT M05/M15 A2992 RMK A01 T10541151  RH  046%=      5-min Rain = 0
KAM1 240515Z 14006KT M06/M15 A2992 RMK A01 T10551151  RH  047%=      5-min Rain = 0
KAM1 240516Z 14006KT M06/M15 A2992 RMK A01 T10551150  RH  047%=      5-min Rain = 0
KAM1 240517Z 13006KT M06/M15 A2992 RMK A01 T10551150  RH  047%=      5-min Rain = 0
KAM1 240518Z 13005KT M06/M15 A2992 RMK A01 T10551150  RH  047%=      5-min Rain = 0
KAM1 240519Z 13005KT M06/M15 A2992 RMK A01 T10561151  RH  047%=      5-min Rain = 0
KAM1 240520Z 13006KT M06/M15 A2992 RMK A01 T10571152  RH  047%=      5-min Rain = 0
KAM1 240521Z 13006KT M06/M15 A2992 RMK A01 T10561152  RH  047%=      5-min Rain = 0
KAM1 240522Z 13006KT M06/M15 A2992 RMK A01 T10551152  RH  047%=      5-min Rain = 0
KAM1 240523Z 13006KT M05/M15 A2992 RMK A01 T10541152  RH  046%=      5-min Rain = 0
KAM1 240524Z 13005KT M05/M15 A2992 RMK A01 T10541152  RH  046%=      5-min Rain = 0
KAM1 240525Z 13005KT M06/M15 A2992 RMK A01 T10561153  RH  046%=      5-min Rain = 0
KAM1 240526Z 13005KT M06/M15 A2992 RMK A01 T10571153  RH  047%=      5-min Rain = 0
KAM1 240527Z 14006KT M06/M15 A2992 RMK A01 T10571152  RH  047%=      5-min Rain = 0
KAM1 240528Z 14006KT M06/M15 A2992 RMK A01 T10561151  RH  047%=      5-min Rain = 0
KAM1 240529Z 14006KT M06/M15 A2993 RMK A01 T10551151  RH  047%=      5-min Rain = 0
KAM1 240530Z 14005KT M05/M15 A2993 RMK A01 T10541150  RH  047%=      5-min Rain = 0
KAM1 240531Z 14005KT M05/M15 A2993 RMK A01 T10511149  RH  046%=      5-min Rain = 0
KAM1 240532Z 14005KT M05/M15 A2993 RMK A01 T10501148  RH  046%=      5-min Rain = 0
KAM1 240533Z 14004KT M05/M15 A2993 RMK A01 T10491149  RH  045%=      5-min Rain = 0
KAM1 240534Z 14005KT M05/M15 A2993 RMK A01 T10501150  RH  045%=      5-min Rain = 0
KAM1 240535Z 13005KT M05/M15 A2993 RMK A01 T10501151  RH  045%=      5-min Rain = 0
KAM1 240536Z 13005KT M05/M15 A2993 RMK A01 T10491150  RH  045%=      5-min Rain = 0
KAM1 240537Z 14005KT M05/M15 A2993 RMK A01 T10491150  RH  045%=      5-min Rain = 0
KAM1 240538Z 14005KT M05/M15 A2993 RMK A01 T10481150  RH  045%=      5-min Rain = 0
KAM1 240539Z 14004KT M05/M15 A2993 RMK A01 T10481151  RH  044%=      5-min Rain = 0
KAM1 240540Z 14004KT M05/M15 A2993 RMK A01 T10481151  RH  044%=      5-min Rain = 0
KAM1 240541Z 14004KT M05/M15 A2993 RMK A01 T10481151  RH  044%=      5-min Rain = 0
KAM1 240542Z 15004KT M05/M15 A2993 RMK A01 T10491151  RH  045%=      5-min Rain = 0
KAM1 240543Z 15004KT M05/M15 A2993 RMK A01 T10491151  RH  045%=      5-min Rain = 0
KAM1 240544Z 15004KT M05/M15 A2993 RMK A01 T10501152  RH  045%=      5-min Rain = 0
KAM1 240545Z 15004KT M05/M15 A2993 RMK A01 T10501152  RH  045%=      5-min Rain = 0
KAM1 240546Z 15004KT M05/M15 A2993 RMK A01 T10511152  RH  045%=      5-min Rain = 0
KAM1 240547Z 15004KT M05/M15 A2993 RMK A01 T10511152  RH  045%=      5-min Rain = 0
KAM1 240548Z 14004KT M05/M15 A2993 RMK A01 T10511151  RH  045%=      5-min Rain = 0
KAM1 240549Z 14004KT M05/M15 A2993 RMK A01 T10501151  RH  045%=      5-min Rain = 0
KAM1 240550Z 14004KT M05/M15 A2993 RMK A01 T10501150  RH  045%=      5-min Rain = 0
KAM1 240551Z 14005KT M05/M15 A2993 RMK A01 T10491150  RH  045%=      5-min Rain = 0
KAM1 240552Z 14004KT M05/M15 A2993 RMK A01 T10491150  RH  045%=      5-min Rain = 0
KAM1 240553Z 14004KT M05/M15 A2993 RMK A01 T10481149  RH  045%=      5-min Rain = 0
KAM1 240554Z 14004KT M05/M15 A2993 RMK A01 T10481149  RH  045%=      5-min Rain = 0
KAM1 240555Z 14004KT M05/M15 A2993 RMK A01 T10471148  RH  045%=      5-min Rain = 0
KAM1 240556Z 15003KT M05/M15 A2993 RMK A01 T10461148  RH  045%=      5-min Rain = 0
KAM1 240557Z 14003KT M05/M15 A2993 RMK A01 T10451147  RH  045%=      5-min Rain = 0
KAM1 240558Z 14002KT M04/M15 A2993 RMK A01 T10441147  RH  045%=      5-min Rain = 0
KAM1 240559Z 14002KT M04/M15 A2993 RMK A01 T10441147  RH  044%=      5-min Rain = 0

Page generated in 0.1199 seconds.